GFSFLT1_prec_radar_045.txt.gz
Reflectivity
-20 -20 -20 -20 -20 -20 -20 -20 -20 -20 -20 -20 -20 -20 -20 -20 -20 -20 -20 -20 -20 -20 -20 -20 -20 -20 -20 -20 -20 -20 -20 -20
-20 -20 -20 -20 -20 -20 -20 -20 -20 -20 -20 -20 -20 -20 -20 -20 -20 -20 -20 -20 -20 -20 -20 -20 -20 -20 -20 -20 -20 -20 -20 -20
-20 -20 -20 -20 -20 -20 -20 -20 -20 -20 -20 20 -20 -20 -20 -20 -20 -20 -20 -20 -20 -20 -20 -20 -20 -20 -20 -20 -20 -20 -20 -20
-20 -20 -20 -20 -20 -20 -20 -20 -20 -20 -20 -20 -20 0 -20 -20 -20 -20 -20 -20 -20 -20 -20 -20 -20 -20 -20 -20 -20 -20 -20 -20
-20 -20 -20 -20 -20 -20 -20 -20 -20 -20 -20 -20 -20 -20 16 4 -20 -20 -20 -20 -20 -20 -20 -20 -20 -20 -20 -20 -20 -20 -20 -20
-20 -20 -20 -20 -20 -20 -20 14 -20 -20 -20 -20 27 -18 22 -20 -20 -20 -20 -20 -20 -20 -20 -20 -20 -20 -20 -15 -14 -20 -20 -20
-20 -20 -20 -20 -20 12 -20 -7 -3 -20 -20 -20 -0 20 -2 -10 -20 -20 -20 -20 -20 -20 -20 -20 -20 -20 -11 8 -20 -20 -17 -15
-20 -20 -20 -15 9 12 3 9 -4 -4 -20 -9 -6 -14 -20 -13 -20 -20 -20 -20 -20 -20 -20 -20 -11 -18 25 4 -20 -2 10 -16
-20 4 -20 -20 -20 20 -19 3 29 -19 -20 -20 -20 -14 -20 -20 -20 -20 -20 -20 -20 -20 -5 16 33 14 -20 -8 7 3 -20 -20
-20 -20 -20 -20 -20 29 30 -14 -19 -11 28 -20 -20 13 23 -4 -20 -20 23 6 -8 36 17 24 25 -5 18 -1 -12 -20 -20 -20
-20 -20 -20 -20 -20 9 -20 -20 -10 27 -20 6 -20 -3 -20 2 -14 16 10 2 33 -0 -15 18 27 -4 -10 -16 -20 -20 -20 -20
-20 -20 -20 -20 -20 -20 -20 -20 -20 -20 -20 -20 -5 -8 19 -20 -3 -20 -20 -2 -20 -1 21 -15 -11 -19 -20 -20 -20 -7 1 -17
-20 -20 -20 -20 -20 -20 -20 -20 -20 -20 -20 22 26 -18 13 -20 -20 -20 -20 9 -5 -4 -20 -20 -20 -20 -20 -10 -3 -20 -20 -20
-20 -20 -20 -20 -20 -20 -20 -11 26 22 20 23 18 8 17 2 -6 -20 19 -9 -19 -15 -15 -14 1 -0 8 -19 -20 -20 -20 -20
-20 -20 -20 -20 -20 20 -1 22 21 27 2 -20 13 -1 -20 8 -9 -19 -20 -20 -15 10 -20 -15 8 18 -20 -20 -20 -20 -20 -20
-20 -20 -20 -20 -20 7 16 -3 23 -20 -20 -7 1 -20 -5 -15 -20 18 18 -20 -20 -20 5 29 12 6 -7 -19 -20 -20 -20 -20
-20 -20 -20 -20 -20 -20 -20 -20 -20 19 20 -20 -20 14 -15 2 6 -20 -20 -20 7 25 24 17 8 1 -20 -20 -20 -20 -20 -20
-20 -20 -20 -20 -20 -20 -20 -20 -20 -18 -20 -14 -20 -20 -20 -14 -13 -18 -13 26 34 15 -4 -20 -20 -20 -20 -20 -20 -20 -20 -20
-20 -20 -20 -20 -20 -20 -20 -20 -20 -20 -20 -16 -20 -20 -20 -20 -20 15 35 22 7 -20 -20 -20 -20 -20 -20 -20 -20 -20 -20 -20

GFSFLT1_prec_radar_048.txt.gz
Reflectivity
-20 -20 -20 -20 -20 -20 -20 -20 -20 -20 -20 -20 -20 -20 -20 31 -20 -20 -20 -20 -20 -20 -20 -20 -20 -20 -20 -20 -20 -20 -20 -20
-20 -20 -20 -20 -20 -20 -20 -20 -20 -20 -20 -20 -20 -20 -20 -0 13 -20 -20 -20 -20 -20 -20 -20 -20 -20 -20 -20 -20 -20 -20 -20
-20 -20 -20 -20 -20 -20 -20 -20 -20 -20 -20 -20 -20 -20 -20 29 -8 -20 -20 -20 -20 -20 -20 -20 -20 -20 -20 -20 -20 -20 -20 -20
-20 -20 -20 -20 -20 -20 -20 -20 -20 -20 -20 -20 -20 -20 -20 -20 -12 -20 -20 -20 -20 -20 -20 -20 -20 -20 -20 -20 -20 -20 -20 -20
-20 -20 -20 -20 -20 -20 -20 -20 -20 -20 -20 -20 -20 -20 -20 25 20 -20 -20 -20 -20 -20 -20 -20 -20 -20 -20 -20 -20 -20 -20 -20
-20 -20 -20 -20 -20 -20 -20 -20 -20 -20 -18 -20 -20 -20 28 -17 -8 -20 -20 -20 -20 -20 -20 -20 -20 -20 -20 -20 -13 -12 7 24
-20 -20 -20 -20 -20 -20 -20 -20 -20 -20 -14 -20 -20 23 24 22 17 15 4 -20 -20 -20 -20 -20 -20 -20 -20 -11 -20 30 -20 -20
-20 -20 -20 -20 -20 -20 -20 -20 -20 22 -20 -20 -20 14 27 -5 3 -2 -20 -20 -20 -20 -19 -3 -16 23 22 15 13 -6 -13 -20
-20 -20 -20 -20 -20 -20 -20 -20 -20 -11 27 25 -20 -19 27 24 27 -16 -20 -20 -20 -20 13 29 16 6 -18 22 -1 -20 -20 -14
-20 -20 -20 -20 -20 -20 -16 -13 -20 -20 -20 -20 1 26 21 24 27 -11 7 -13 -2 25 24 10 -20 -16 26 -5 -16 -20 -20 -20
-20 -20 -20 -20 -20 -20 -20 -20 -15 7 -20 1 21 3 25 25 25 24 19 23 -20 -8 -20 -20 -12 29 5 3 -20 -20 -20 -20
-20 -20 -20 -20 -20 -20 -20 -20 -20 -20 -20 23 -13 22 25 7 25 24 24 7 3 16 -18 -0 -5 -4 -18 -14 -20 -4 -20 -20
-20 -20 -20 -20 -20 -20 -20 -20 -19 22 -14 1 25 27 27 25 22 11 14 2 -20 -20 32 -6 -20 -19 23 -18 8 -20 -20 -20
-20 -20 -20 -20 -20 -20 -20 -20 -20 -20 -4 3 27 18 22 14 -11 -20 7 -20 -11 7 -13 20 -7 -9 24 6 -20 -20 -20 -20
-20 -20 -20 -20 0 -20 -18 -13 5 23 23 23 24 5 19 -9 -20 -19 -15 1 14 3 17 -10 14 19 21 -5 -20 -20 -20 -20
-20 -20 -20 -20 -20 -20 -20 -20 -15 7 12 -14 -1 15 10 -20 -20 -20 15 3 4 -18 -20 25 25 20 -12 -20 -20 -20 -20 -20
-20 -20 -20 -20 -20 -20 -20 -20 -20 16 -17 -20 -5 -20 -18 5 -19 -18 -10 -13 12 -10 22 23 19 -15 -20 -20 -20 -20 -20 -20
-20 -20 -20 -20 -20 -20 -20 -20 -20 -20 -20 -20 -20 -20 -20 -20 -12 -7 19 2 23 27 28 -12 -20 -20 -20 -20 -20 -20 -20 -20
-20 -20 -20 -20 -20 -20 -20 -20 -20 -20 -20 -20 -20 -19 -12 -12 8 21 30 26 35 26 4 -15 -20 -20 -20 -20 -20 -20 -20 -20

GFSFLT1_prec_radar_054.txt.gz
Reflectivity
-20 -20 -20 -20 -20 -20 -20 -20 -20 -20 -20 -20 -20 -20 -20 -20 -20 -17 14 -18 -20 -20 -20 -20 -20 -20 -20 -20 -20 -20 -20 -20
-20 -20 -20 -20 -20 -20 -20 -20 -20 -2 -20 -20 -20 -20 -20 -20 -20 -20 10 -20 -16 -20 -20 -20 -20 -20 -20 -16 -20 -20 -20 -20
-20 -20 -20 -20 -20 -20 -20 -20 -14 -1 -20 -20 -20 -20 -20 -20 -20 6 22 -0 14 -20 -20 -20 -20 -20 -20 -20 -20 -20 -20 -20
-20 -20 -20 -20 -20 -20 -20 -20 -20 6 -20 -20 -20 -20 -20 -20 -7 -4 -6 30 26 -2 -20 -20 -20 -20 -20 -20 -20 -20 -20 -20
-20 -20 -20 -20 -20 -20 -20 -20 -20 -20 -20 -20 -20 -20 -20 -20 -20 -2 29 23 15 13 -20 -20 -20 -20 -20 -20 -20 -20 -20 -20
-20 -20 -20 -20 -20 -20 -20 -20 -20 -20 -20 -20 -20 -20 -20 -20 -3 -1 -11 15 21 12 -20 -20 -8 -12 -20 -20 -20 -20 -20 -19
-20 -20 -20 -20 -20 -20 -20 -20 -20 -20 -20 -20 -20 -20 -20 -20 -20 -10 -7 -16 21 17 -20 -14 3 2 -20 -20 -20 21 -12 -10
-20 -20 -20 -20 -20 -20 -20 -20 -20 -20 -20 -20 -20 -20 -19 4 -12 -20 -20 -20 -20 12 15 7 -6 -20 -20 -17 -2 -20 -20 -20
-20 -20 -20 -20 -20 -20 -20 -20 -20 -20 -20 -20 -20 -12 14 -14 -20 -20 -13 18 16 38 3 -3 19 22 -8 -18 -20 -6 16 -19
-20 -20 -20 -20 -20 -20 -20 -20 -20 -20 -16 -5 -16 -1 7 5 -13 -9 -7 -5 9 29 26 8 29 -11 -18 -20 21 20 25 13
-20 -20 -20 -20 -20 -20 -20 -20 -20 -20 -20 -20 -12 -2 -7 -7 7 -7 16 19 25 13 3 39 27 5 18 15 -10 4 23 28
-20 -20 -20 -20 -20 -20 -20 -20 -20 -20 -20 -20 -13 2 -0 -9 1 -2 20 11 5 19 23 29 15 -0 4 15 28 19 29 12
-20 -20 -20 -20 -20 -20 -20 -20 -20 -20 -20 -20 0 -3 -19 -1 -20 -20 13 17 9 10 -20 14 4 6 -13 9 4 32 21 -4
-20 -20 -20 -20 -20 -20 -20 -20 -20 -20 -20 -17 -20 -18 -20 -8 -20 17 11 16 -16 -20 19 16 -19 -20 20 23 19 25 1 -14
-20 -20 -20 -20 -20 -20 -20 -20 -20 -20 -20 -20 -20 -20 -20 -20 -20 -20 -20 -12 -8 -20 -6 3 -12 -15 16 27 21 -2 -19 -19
-20 -20 -20 -20 -20 -20 -20 -13 -16 -20 -20 14 1 -19 -20 -20 -20 -20 -20 -20 -20 -20 -1 -15 9 22 13 12 -2 -15 1 -17
-20 -20 -20 -20 -20 -20 31 -20 -20 -20 21 -20 -20 -20 -20 -20 -20 -20 -20 -20 -20 -7 18 -6 17 17 15 11 -5 3 -20 -20
-20 -20 -20 -20 -20 -20 -20 -20 -20 -20 -20 -20 -20 -20 -20 -20 -20 -20 -18 -17 -20 9 -14 -9 -17 -13 11 -20 -20 -20 -20 -20
-20 -20 -20 -20 -20 -20 -20 -20 -20 -20 -20 -20 -20 -20 -20 -17 -18 -20 -20 -20 -11 -20 -7 1 -7 -12 -20 -20 -20 -20 -20 -20

GFSFLT1_prec_radar_060.txt.gz
Reflectivity
-20 -20 -20 -20 -20 -20 -20 -20 -20 -20 -20 -18 -20 -16 -5 -20 -20 -20 21 -20 -20 -20 -20 -20 -20 -20 -20 -20 -20 -20 -20 -20
-20 -20 -20 -20 -20 -20 -20 -20 -20 -20 -20 -20 -20 12 -20 -20 -20 -20 -20 -20 11 2 -0 -18 -20 -20 -20 -20 -20 -20 -20 -20
-20 -20 -20 -20 -20 -20 -20 -20 -20 -20 -20 -20 -16 -20 -20 -20 -20 -20 -20 -20 2 7 35 6 -20 21 -13 -20 -20 -20 -20 -20
-20 -20 -20 -20 -20 -20 -20 -20 -20 -20 -20 -20 -20 -20 -20 -20 -20 -20 -20 -20 -7 9 26 15 -4 -20 -6 -20 -20 -20 -20 -6
-18 -20 -20 -20 -20 -20 -20 -20 -20 -20 -20 -20 -20 -20 -20 -20 -20 -20 -20 -20 -20 -20 -10 -18 16 31 10 36 5 -14 -17 -10
-20 -20 -20 -20 -20 -20 -20 -20 -20 -20 -20 -20 -19 -9 -20 -20 -20 -20 -1 -20 -20 -20 -20 -20 -20 -20 -20 -16 34 24 29 19
-20 -20 -20 -20 -20 -20 -20 -20 -20 -20 -20 -20 -20 -12 -20 -20 -20 -20 -20 6 -20 -20 -20 -20 -20 -20 -20 1 41 28 25 39
-20 -20 -20 -20 -20 -20 -20 -20 -20 -20 -20 -20 -20 -20 -20 -20 -20 -20 30 -1 -15 -20 12 -6 -20 -20 -20 -11 24 28 30 32
-20 -20 -20 -20 -20 -20 -20 -20 -20 -20 -20 -20 -20 -16 8 4 34 -1 -20 29 28 -20 -14 16 -20 -19 15 0 -2 18 34 36
-20 -1 -20 -20 -20 -20 -20 -20 -20 -20 -20 -10 -20 28 -18 -20 -20 30 -20 5 -20 26 19 -5 -20 -15 -20 -19 11 12 25 23
-20 -20 -20 -20 -20 -20 -20 -20 -20 -20 -20 -20 -12 21 30 -20 27 26 35 -11 20 7 -20 -20 -20 14 5 26 22 6 1 10
-20 -20 -20 -20 -20 -20 -20 -20 -20 -20 -20 -20 -16 -20 -12 34 14 -15 -20 -12 -4 -16 -20 -20 7 -1 21 27 32 8 -7 13
-20 -20 -20 -20 -20 -20 -20 -20 -20 -20 -16 -0 26 2 37 35 33 -19 -20 -20 20 -13 -17 -4 12 -20 -19 4 13 17 6 -0
-20 -20 -20 -20 -20 -20 27 14 -20 18 -8 12 -4 -7 -2 -20 1 6 -9 1 14 15 6 15 -6 10 3 -6 16 4 2 5
-20 -20 -20 -20 -20 -20 -20 -20 -20 2 31 8 -14 -19 -20 -10 -12 6 13 9 13 6 6 -7 14 -1 -3 -13 2 -2 -7 -11
-20 -20 -20 -20 -20 -20 -20 -20 -20 23 -20 -20 -19 -18 16 22 14 24 -0 2 -11 4 2 -19 -9 -20 -11 -20 -8 -2 -14 -20
-20 -20 -20 -20 -20 -20 -20 -20 -19 -20 -20 -2 -1 -20 -20 22 -11 -20 -20 -13 1 -20 -20 -20 -20 -20 -5 3 -4 -20 -20 -20
-20 -20 -20 -16 -7 13 -20 -20 -20 -20 -20 -20 -20 -20 -20 -20 -20 -20 -20 -20 -20 -20 -20 -20 -20 -20 -10 -20 -20 -20 -20 -20
-20 -20 5 -20 -20 -20 -20 -20 -13 -20 -20 -20 -20 -20 -20 -20 -20 -20 -20 -20 -20 -20 -20 -20 -20 -8 -20 -20 -20 -20 -20 -20

GFSFLT1_prec_radar_063.txt.gz
Reflectivity
-20 -20 -20 -20 -20 -20 -20 -17 -14 -20 -20 -20 -20 -20 -20 -20 -20 -20 -20 -20 -20 -20 -20 -20 -20 -20 -20 -20 -20 -20 -20 -20
-20 -20 -20 -20 -20 -20 -20 -20 -20 -20 -20 -20 -20 -20 -20 -20 -20 -20 -20 -20 -1 -2 -18 -20 -20 -20 -20 -20 -20 -20 -20 -20
-20 -20 -20 -20 -20 -20 -20 -20 -20 -20 -20 -20 -20 -20 -20 -20 -20 -20 -20 -20 -20 -15 18 17 15 -20 -20 -14 -20 -20 -20 -20
-20 -20 -20 -20 -20 -20 -20 -20 -20 -20 -20 -20 -20 -20 -20 -20 -20 -20 -20 -20 -20 -20 -20 4 27 -13 -1 -20 9 -20 -9 10
-20 -20 -20 -20 -20 -20 -20 -20 -20 -20 -20 -20 -20 -20 -20 -20 -20 -20 -20 -20 -20 -20 -20 -13 28 -20 -20 -2 -13 -15 -12 -4
-20 -20 -20 -20 -20 -20 -20 -20 -20 -20 -20 -20 -20 -20 -20 -20 -20 -20 -20 -20 -20 -20 -20 -20 -20 -17 -20 -20 14 -15 -1 24
-20 -20 -20 -20 -20 -20 -20 -20 -20 -20 -20 -20 -20 -20 -20 -20 -20 -20 -20 -20 -20 -3 -20 -11 -20 25 -20 -20 17 20 5 6
-20 -20 -20 -20 -20 -20 -20 -20 -20 -20 -20 -20 -20 -20 -20 -20 -20 -20 -20 -20 -20 30 28 27 -8 1 -20 -20 17 -1 -4 14
-20 -20 -20 -20 -20 -20 -20 -20 -20 -20 -20 -20 -20 -20 -20 -20 -20 -20 -20 -20 -20 -20 -20 29 26 13 -20 -16 -11 7 9 20
-20 -20 -20 -20 -20 -20 -20 -20 -20 -20 -20 -20 -20 -20 -20 -20 -20 -10 -20 -13 31 -11 -15 9 -5 17 7 -20 -3 10 30 28
-20 -20 -20 -20 -20 -20 -20 -20 -20 -20 -20 -20 -20 -20 -20 -20 22 32 31 45 34 25 -2 -2 16 -20 10 -20 -10 21 11 -18
-20 -20 -20 -20 -20 -20 -20 5 -20 -20 -20 -20 -20 -20 -20 31 2 37 36 16 8 21 -19 6 18 7 -17 -16 -14 -18 -20 -16
-20 -20 -20 -20 -20 -20 -20 -20 -10 -3 30 28 -2 25 37 33 41 50 35 -9 18 26 -12 9 -16 -20 -20 -19 -20 -13 -16 7
-20 -20 -20 -20 -20 -12 -16 30 31 30 35 39 23 6 22 30 13 10 24 20 -4 1 11 3 -20 1 13 -2 10 17 0 -8
-20 -20 -20 -20 -20 -20 -20 15 34 10 37 31 4 -5 -9 -20 17 5 -0 14 12 8 -16 -15 -3 7 2 -13 6 -13 -12 -14
-20 -20 -20 -20 -20 -20 -20 -20 -16 -9 30 1 -20 -20 17 14 -16 -20 -20 -16 -12 -18 -20 -15 1 16 -2 -15 -17 -9 -14 -17
-20 -20 -20 -20 -20 -20 -20 -20 -20 -20 -20 -20 -20 -20 -20 -20 -20 -20 -20 -20 -20 -20 -14 3 5 -7 -20 -20 -20 -20 -20 -20
-20 -20 -20 -20 -20 -20 -20 -20 -20 -20 -20 -20 -20 -20 -20 -20 -20 -20 -20 -20 -20 -20 -20 -20 -20 -20 -20 -20 -20 -20 -20 -20
-20 -20 -20 -20 -20 -20 -20 -20 1 -20 -20 -20 -20 -20 -20 -20 -20 -20 -20 -20 -20 -20 -20 -20 -20 -20 -20 -20 -20 -20 -20 -20

GFSFLT1_prec_radar_069.txt.gz
Reflectivity
-20 -20 -20 -20 -20 -20 -17 10 29 31 21 -5 -3 23 20 21 10 24 -6 6 -3 -6 4 -20 -20 -20 -20 -20 -20 -20 -20 -20
-20 -20 -20 -8 -13 -2 -17 3 -3 11 2 17 25 6 17 7 16 14 10 13 -1 -20 -20 -20 -20 -20 -20 -20 -1 -20 -20 -20
-20 -20 -20 -20 -11 -0 -20 -18 -20 -7 -3 8 -1 11 3 5 21 -17 -20 -20 -20 -20 -20 -20 -20 -20 -20 7 -20 -20 -20 -20
-20 -20 -20 -20 -20 -20 -20 -20 14 -20 -20 -20 -18 -9 6 17 7 -5 -20 -20 -20 -20 -20 -17 -12 -20 -20 -16 -20 -18 -19 6
-20 -20 -20 -20 -20 -20 -20 -20 -20 -20 -20 -20 -20 -19 -19 -16 -16 -13 -20 -20 -20 8 12 2 -20 -20 -20 -7 -18 -20 16 -12
-20 -20 -20 -20 -20 -20 -20 -20 -20 -20 -20 -20 -20 -20 -20 -20 -20 -20 -20 -20 -20 -20 -20 -20 -20 -20 -20 -19 -20 -20 -8 11
-20 -20 -20 -20 -20 -20 -20 -20 -20 -20 -20 -20 -20 -20 -20 -20 -20 -20 -20 -20 -20 -20 -20 -20 -20 -20 -20 -20 -20 -20 -20 -20
-20 -20 -20 -20 -20 -20 -20 -20 -20 -20 -20 -20 -20 -20 -20 -20 -20 -20 -20 -20 -20 -20 -15 -20 -20 -20 -20 -20 -20 -14 8 5
-20 -20 -20 -20 -20 -20 -20 -20 -20 -20 -20 -20 -20 -20 -20 -20 -20 -20 -20 -20 -20 -6 -13 2 -20 -20 -7 31 23 28 26 -15
-20 -20 -20 -20 -20 -20 -20 -20 -20 -20 -20 -20 -20 -20 -20 -20 -20 -20 -20 -20 -17 -19 -20 -20 -20 -13 19 37 22 0 -20 -20
-20 -20 -20 -20 -20 -20 -3 -9 -20 -20 -20 -20 -20 -20 -20 -20 -20 -12 -17 13 17 28 27 32 13 1 26 17 22 -20 -20 -20
-20 -20 -20 -20 -20 -20 -20 25 -2 -20 -20 -20 -20 -20 -19 -20 -13 -20 -20 15 13 34 38 33 30 5 28 7 -10 -19 -20 -20
-20 -20 -20 -20 -20 -18 -20 4 19 22 25 24 23 16 18 -4 8 -2 -20 -3 20 16 33 19 15 7 -8 1 -18 -4 9 22
-20 -20 -20 -20 -20 -20 -20 -20 -5 20 17 11 -4 15 10 19 7 24 6 23 30 -3 -6 6 12 9 -20 -16 21 14 4 -19
-20 -20 -20 -20 -20 -20 -20 -20 -20 -14 -8 -1 4 6 -20 -20 -6 40 37 13 22 -2 -20 24 -20 6 -20 6 19 -2 -1 -5
-20 -20 -20 -20 -20 -20 -20 -20 -20 -20 -17 -16 -18 27 -20 -20 -20 17 -12 -20 -20 -20 -20 30 -13 -3 -2 21 -3 -20 -13 10
-20 -20 -20 -20 -20 -20 -20 -20 -20 -20 -20 -20 -20 -20 -20 -20 -20 -16 -20 -20 -20 -20 -20 -1 16 21 22 14 12 14 -7 1
-20 -20 -20 -20 -20 -20 -20 -20 -20 -20 -20 -20 8 28 -20 -20 -20 -20 -17 -3 -20 -5 23 21 12 -4 17 15 16 -5 -20 3
-20 -20 -20 -20 -20 -20 -20 -20 -20 -20 -20 -20 1 22 3 23 6 -19 -10 4 -8 4 -11 9 13 16 17 14 7 -7 -3 -6

GFSFLT1_prec_radar_072.txt.gz
Reflectivity
-20 -20 -20 -20 -17 -20 -16 -6 17 31 16 19 31 28 24 34 25 18 9 18 26 21 12 22 16 9 -6 -20 -20 -20 -17 -19
-20 -20 -20 -20 -20 -20 -20 -7 2 23 24 -15 21 26 26 28 31 25 13 19 15 17 9 13 15 5 -20 -20 -20 -20 -20 -17
-20 -20 -19 -4 -20 -20 -20 -9 -20 -11 17 13 4 21 28 25 31 28 16 12 -6 -9 -12 3 18 -13 -20 -20 -18 -20 -20 -8
-20 -20 -6 -4 -14 -20 -20 -20 -20 -17 7 11 18 28 25 23 30 28 21 2 -1 8 10 24 -6 -17 -16 -20 -20 -12 -20 -18
-20 -20 -10 -14 -20 -20 -20 -20 -20 -20 -20 -18 5 11 -0 6 -1 -12 1 6 27 -5 -1 1 -20 -20 -20 -20 -20 -19 -20 -19
-20 -20 -20 -20 -20 -20 -20 -20 -20 -20 -20 -20 -8 -20 -20 -20 -20 -20 -20 -20 -20 -20 -20 -20 -20 -20 -20 -20 -18 -17 7 -11
-20 -20 -20 -20 -20 -20 -20 -20 -20 -20 -20 -20 -20 -20 -20 -20 -20 -20 -20 -20 -20 -20 -20 -20 -8 4 -18 -14 16 11 4 -20
-20 -20 -20 -20 -20 -20 -20 -20 -20 -20 -20 -20 -20 -20 -20 -20 -20 -20 -20 -20 -20 -20 -20 -20 -20 -20 -20 -20 -20 -20 -8 9
-20 -20 -20 -20 -20 -20 -20 -20 -20 -20 -20 -20 -20 -20 -20 -20 -20 -20 -20 -20 -20 -20 -20 -20 -20 -20 -20 -20 -20 15 21 24
-20 -20 -20 -20 -20 -20 -20 -20 -20 -20 -20 -20 -20 -20 -20 -20 -20 -20 -20 -20 -20 -20 -20 -20 -20 -19 -20 -20 -5 20 32 23
-20 -20 -20 -20 -20 -20 -20 -17 -20 -20 -20 -20 -20 -20 -20 -20 -20 -20 -20 -20 -17 -20 -20 -20 -20 -20 -20 -12 -6 27 17 10
-20 -20 -20 -20 -20 -20 -20 -20 11 -20 -20 -20 -20 -20 -20 -20 -8 1 -20 -20 -18 -13 -2 22 28 33 29 15 9 27 17 4
-20 -20 -20 -20 -20 -20 -20 -20 -20 -10 7 -20 -20 -20 -9 9 0 -13 -20 -20 -20 -20 1 16 -18 -3 22 30 24 18 10 -0
-20 -20 -20 -20 -20 -20 -20 -20 -20 -20 15 -15 -3 6 -20 -20 -20 -20 -20 -17 -16 -6 -16 26 -20 -20 8 20 13 16 0 25
-20 -20 -20 -20 -20 -20 -20 -20 -20 -20 -18 -9 -20 -20 -20 3 -20 -20 -20 -16 14 32 13 8 20 -20 -20 -7 -6 -9 -3 24
-20 -20 -20 -20 -20 -20 -20 -20 -20 -20 -20 -20 -20 -20 -20 -20 -20 -20 -20 -20 -17 -20 -17 -14 28 -20 -11 -15 -20 -17 11 18
-20 -20 -20 -20 -20 -20 -20 -20 -20 -20 -20 -20 -20 -20 -20 -20 -19 10 -20 -20 -20 -20 -20 -10 14 -20 8 19 4 23 1 15
-20 -20 -20 -20 -20 -20 -20 -20 -20 -20 -20 -20 -20 -20 -20 -20 -20 -17 -20 -20 -20 -18 -11 -17 -5 26 6 -2 14 17 25 8
-20 -20 -20 -20 -20 -20 -20 -20 -20 -20 -20 -20 -20 -20 -20 -20 -20 -20 -20 8 25 19 19 19 23 20 15 12 15 6 15 16

GFSFLT1_prec_radar_075.txt.gz
Reflectivity
-20 -20 -20 -20 -6 -1 2 6 6 25 11 -9 6 29 28 25 17 16 -2 -0 21 3 -17 4 19 21 25 -15 -20 -20 -20 -20
-20 -20 -20 -20 4 6 3 -9 -0 10 12 2 18 29 34 24 20 11 4 8 29 6 10 27 20 19 3 -20 -20 -20 -20 -20
-20 -20 -20 -5 2 -2 4 -19 -7 -13 5 -19 -7 18 31 31 20 13 4 13 21 7 17 18 15 13 0 -6 -9 18 -6 -20
-20 -20 -20 -18 -12 -11 -14 -20 -7 -20 -20 -16 -20 -6 5 14 26 18 8 22 17 15 -2 -11 -19 -20 -20 -16 -20 -20 -20 8
-20 -20 -20 -20 -20 -20 -20 -20 4 -20 -20 -20 -20 -3 -2 -10 3 -9 26 20 22 24 19 -19 -20 2 0 -10 -1 -20 -20 -20
-20 -20 -20 -20 -20 -20 -20 -20 -20 -20 -20 -20 -20 4 22 30 32 30 24 24 12 20 18 2 8 17 -4 1 -20 -20 -7 -20
-20 -20 -20 -20 -20 -15 -20 -20 -20 -20 -20 -20 -20 -20 -9 -10 -16 -10 -14 -12 -11 6 2 -7 10 -8 -13 -15 10 -6 -12 -12
-20 -20 -20 -20 -20 -20 -20 -20 -20 -20 -20 -20 -20 -20 -20 -20 -20 -20 -20 -20 -20 -4 -20 -20 -20 -20 -20 -20 -20 -3 -20 -3
-20 -20 -20 -20 -20 -20 -20 -20 -20 -20 -20 -20 -20 -20 -20 -20 -20 -20 -20 -20 -20 -20 -20 -20 -20 -20 -20 -20 -20 -20 -20 -20
-20 -20 -20 -20 -20 -20 -20 -20 -20 -20 -20 -20 -20 -20 -20 -20 -20 -20 -20 -20 -20 -20 -20 -20 -20 -20 -20 -20 -20 -20 -20 -20
-20 -20 -20 -20 -20 -20 -20 -20 -20 -20 -20 -20 -20 -20 -20 -20 -20 -20 -20 -20 -20 -20 -20 -20 -20 -20 -20 -20 -20 -16 -20 -20
-20 -20 -20 -20 -20 -20 -20 -20 2 -20 -20 -20 -20 -20 -20 -20 -20 -18 -18 -20 -20 -20 -20 -19 -20 -20 -9 -4 -12 -8 -9 20
-20 -20 -20 -20 -20 -20 -20 -20 -20 -20 31 4 -10 -20 -20 -20 0 -19 -20 -20 -20 -20 -20 -20 -20 -20 4 33 21 7 25 28
-20 -20 -20 -20 -20 -20 -20 -20 -20 -20 -20 -20 13 -20 -20 -20 -20 -20 -20 -20 -20 -20 -20 -20 -12 -7 -11 17 16 2 35 31
-20 -20 -20 -20 -20 -20 -20 -20 -20 -20 -20 -20 -20 -20 -5 -20 -20 -20 -20 -20 -20 -20 -20 -20 7 8 -20 -20 -1 -20 -9 16
-20 -20 -20 -20 -20 -20 -20 -20 -20 -20 -20 -20 -20 -20 -20 -20 -20 -20 -20 -20 -20 -20 -20 -20 3 33 8 -17 21 2 -8 -20
-20 -20 -20 -20 -20 -20 -20 -20 -20 -20 -20 -20 -20 -20 -20 -20 -20 -20 -20 -20 -20 5 -20 -20 -20 18 -5 -14 20 -19 7 2
-20 -20 -20 -20 -20 -20 -20 -20 -20 -20 -20 -20 -20 -20 -20 -20 -20 -20 -20 -8 -19 -4 -18 -20 -20 -20 -20 1 -10 21 -11 -5
-20 -20 -20 -20 -20 -20 -20 -20 -20 -20 -20 -20 -20 -20 -20 -20 -20 -20 -20 9 -9 -20 5 -17 -20 -19 -3 0 16 8 10 -3

GFSFLT1_prec_radar_078.txt.gz
Reflectivity
-20 -20 -20 -20 -20 -0 15 3 -20 7 10 9 17 10 28 20 25 28 22 23 25 27 27 25 20 -20 -20 19 -7 -20 -20 -20
-20 -20 -20 -20 -14 3 4 -10 -9 3 5 11 21 21 23 15 17 19 18 18 17 13 -2 6 -13 -20 -4 -5 4 -20 -20 -20
-20 -20 -20 -20 -14 2 8 1 3 3 10 10 11 16 13 13 25 -2 10 11 1 -6 -0 12 1 -20 -15 -17 -18 -20 -20 -17
-20 -20 -20 -20 -15 -10 -5 1 -3 4 7 13 10 22 18 4 1 5 -12 2 16 7 -7 -17 7 -1 12 -19 -20 -13 -6 9
-20 -20 -20 -20 -20 -20 -20 -0 -0 0 -20 -2 5 2 24 7 -1 -11 16 1 -5 -12 11 21 -19 18 -2 -13 -17 -18 -20 -20
-20 -20 -20 -20 -20 -20 4 2 3 -3 -1 -20 -4 5 3 13 6 -1 3 -8 14 24 -5 -2 -0 -20 -20 -20 -20 -20 -20 -19
-20 -20 -20 -20 -20 -14 -20 -20 -10 7 -12 -20 -20 -14 -18 4 21 14 6 -18 1 -6 10 -7 9 -7 -9 -20 -20 -20 -20 4
-20 -20 -20 -20 -20 -20 -20 -17 -12 -10 -2 -13 -2 -20 -20 8 4 -10 -13 -17 9 5 -13 -9 -14 -17 -20 -20 -20 -20 -3 9
-20 -20 -20 -20 -20 -20 -20 -20 -20 -20 -19 4 0 -19 -20 -19 3 -20 -20 -20 -20 -20 -20 -20 -20 17 -16 4 19 16 6 -20
-20 -20 -20 -20 -20 -20 -20 -20 -20 -20 -20 -20 -20 4 5 -7 -14 -20 -20 -20 -20 -20 -20 -18 -20 -20 -8 25 22 -20 -13 4
-20 -20 -20 -20 -20 -20 -20 -20 -20 -20 -20 -20 -20 -20 -20 -20 -20 -20 -20 -20 -20 -20 -20 -20 -16 -20 -20 -20 -4 -7 -14 22
-20 -20 -20 -20 -20 -20 -20 -20 -20 -20 -20 -20 -20 -20 -20 -20 -20 -20 -20 -20 -20 -20 -20 -20 -20 -20 -20 -20 -20 -20 -20 -15
-20 -20 -20 -20 -20 -20 -20 -20 -20 -20 -20 -20 -20 -20 -20 -20 -20 -20 -20 -20 -20 -20 -20 -20 -20 -20 -20 -20 -20 -19 16 11
-20 -20 -20 -20 -20 -20 -20 -20 -20 -20 -20 7 -16 -20 -20 -20 -20 -20 -20 -20 -20 -20 -20 -20 -20 -20 -20 -20 -20 -20 -19 -19
-20 -20 -20 -20 -20 -20 -20 -20 -20 -20 -20 -20 -20 -20 -20 -20 -20 -20 -20 -20 -20 -20 -20 -20 -20 -20 -20 -20 -3 -8 -19 -20
-20 -20 -20 -20 -20 -20 -20 -20 -20 -20 -20 -20 -20 -20 -20 -20 -20 -20 -20 -20 -20 -20 -20 -20 -20 -20 -20 -20 20 31 21 -20
-20 -20 -20 -20 -20 -20 -20 -20 -20 -20 -20 -20 -20 -20 -20 -20 -20 -20 -20 -20 -20 -20 -20 -20 -20 -20 -20 -20 -20 -6 -9 -20
-20 -20 -20 -20 -20 -20 -20 -20 -20 -20 -20 -20 -20 -20 -20 -20 -20 -20 -20 -14 -20 -20 -20 -20 -20 -20 -20 -10 5 -20 -20 -20
-20 -20 -20 -20 -20 -20 -20 -20 -20 -20 -20 -20 -20 -20 -20 -20 -20 -20 -20 -20 -20 2 15 -20 -20 -20 3 11 -1 16 -6 -16

GFSFLT1_prec_radar_084.txt.gz
Reflectivity
-20 -20 -20 -20 -20 -20 -20 -20 -6 14 10 -15 -12 5 -7 9 18 23 22 8 28 32 34 29 24 23 8 7 12 6 -20 -14
-20 -20 -20 -20 -20 -20 -20 -20 -6 7 9 14 -7 -8 5 7 14 27 30 30 29 32 37 31 19 12 -16 -17 11 9 8 12
-20 -20 -20 -20 -20 -20 -20 -15 -1 -7 -19 -20 -18 -20 -7 -11 23 16 14 25 26 29 27 21 26 28 25 3 5 7 8 -1
-20 -20 -20 -20 -20 -20 -20 -20 1 -10 -15 -20 -12 -18 14 -11 -20 -11 9 17 4 -12 -6 3 7 4 -9 -20 -20 -20 -20 -17
-20 -20 -20 -20 -20 -20 -20 -20 -12 -20 -4 -20 15 -3 -20 -20 -20 -11 11 -4 5 7 5 4 3 -12 -17 -20 -20 -20 -20 -20
-20 -20 -20 -20 -20 -20 -20 -14 -9 2 8 -20 -20 -20 -20 -20 -15 -16 -6 -20 -20 -19 -16 -20 -20 -20 -20 -20 -20 -20 19 -5
-20 -20 -20 -20 -20 -20 -20 -20 -5 1 -9 -5 -20 -20 -13 -20 -20 -12 -19 -17 -15 -20 11 -20 -20 -20 -14 -20 -14 -14 14 -19
-20 -20 -20 -20 -20 -20 -20 -20 -20 0 5 -15 -20 -20 -4 -20 -20 -20 -20 -20 -20 -20 -20 -20 -20 -2 -19 -15 26 13 -6 -1
-20 -20 -20 -20 -20 -20 -20 -20 -20 8 11 -20 7 -20 -20 -20 -20 -20 -20 -20 -20 -20 -20 -20 -20 -20 -20 -20 25 27 20 22
-20 -20 -20 -20 -20 -20 -20 -20 -20 -20 12 -5 -12 -16 -20 -20 -20 -20 -20 -20 -20 -20 -19 -20 -0 -0 -19 -20 10 -7 5 5
-20 -20 -20 -20 -20 -20 -20 -20 -20 -20 -18 -9 -20 1 10 -20 -20 -20 -20 -20 -20 -20 -20 -20 2 -20 0 3 8 -16 -6 -6
-20 -20 -20 -20 -20 -20 -20 -20 -20 -20 -20 -20 -20 -19 2 -19 -20 -20 -20 -20 -20 -20 -20 -20 -20 -20 -16 -13 -20 -19 -12 -19
-20 -20 -20 -20 -20 -20 -20 -20 -20 -20 -20 -20 -20 -20 -20 -8 -20 -20 -20 -20 -20 -20 -20 -20 -20 -20 -20 -20 -20 -20 -20 -20
-20 -20 -20 -20 -20 -20 -20 -20 -20 -20 -20 -20 -20 -20 -20 -20 -9 4 -20 -20 -20 -20 -20 -20 -20 -20 -20 -20 -20 -20 -20 -20
-20 -3 -20 -20 -20 -20 -20 -20 -20 -20 -20 -20 -20 -20 -20 -20 -20 -20 -2 -10 -13 -20 -20 -20 -20 -20 -20 -20 -20 -20 -20 -20
-7 -20 1 4 -20 -20 -20 -20 -20 -20 -20 -20 -20 -20 -20 -20 -20 -20 -20 -17 -20 -20 -20 -20 -20 -20 -20 -20 -20 -20 -20 -20
-20 -5 -20 -20 -20 -20 -20 -20 -20 -20 -20 -20 -20 -20 -20 -20 -20 -20 -20 -20 -20 -20 -20 -20 -20 -20 -20 -20 -20 -20 -20 -20
-20 -20 -20 -20 -20 -20 -20 -20 -20 -20 -20 -20 -20 -20 -20 -20 -20 -20 -20 -15 -19 -20 -20 -20 -20 -20 -20 -15 -20 -20 -20 -20
-20 -20 -20 -20 -20 -20 -20 -20 -20 -20 -20 -20 -20 -20 -20 -20 -20 -20 -20 -20 -20 -20 -19 -20 -20 -20 -20 -20 -20 -16 -17 -20

GFSFLT1_prec_radar_087.txt.gz
Reflectivity
-20 -20 -20 -20 -20 -20 -20 -20 -20 -16 -20 -10 -6 -20 -20 -20 -20 -20 17 12 10 14 9 4 21 18 -0 -8 -20 -20 -15 -16
-20 -20 -20 -20 -20 -20 -20 -20 -20 -20 3 8 -16 -8 -19 -20 -14 -20 16 13 5 22 32 29 7 22 -6 -19 6 13 -9 8
-20 -20 -20 -20 -20 -20 -20 -20 -20 -19 -20 -3 -20 -20 -13 17 0 15 14 21 23 24 17 26 29 19 -15 -6 11 -14 14 10
-20 -20 -20 -20 -20 -20 -20 -20 -20 -20 -6 12 -11 -20 -20 4 5 11 13 27 31 35 34 29 31 11 1 -20 -20 -20 -20 -20
-20 -20 -20 -20 -20 -20 -20 -20 -20 -20 13 13 -6 -20 -20 -20 -8 -20 -9 -7 2 12 21 29 22 25 25 -13 -17 -14 -20 -10
-20 -20 -20 -20 -20 -20 -20 -20 -20 -20 -19 14 -19 -20 -17 -19 6 -20 -11 15 3 20 21 16 18 24 25 19 -20 -19 -20 -20
-20 -20 -20 -20 -20 -20 -20 -20 -20 -15 -20 1 -17 -20 -20 -20 -20 -20 -9 -10 -3 -20 -4 -14 -12 7 11 -3 -19 -15 -19 -17
-20 -20 -20 -20 -20 -20 -20 -20 -20 -1 -20 -20 -19 -20 -20 -20 -20 -20 -17 -20 -20 -20 -20 -20 -20 -20 -20 -20 -20 -20 -14 7
-20 -20 -20 -20 -20 -20 -20 -20 -20 -17 -3 -15 -20 -20 -20 -20 -20 -20 -20 -20 -20 -20 -20 -20 -20 -20 -20 -20 -20 -20 -20 9
-20 -20 -20 -20 -20 -20 -20 -20 -20 -20 -17 -12 -20 -20 -20 -20 -20 -20 -20 -20 -20 -20 -20 -18 -20 -20 -20 5 13 1 6 8
-20 -20 -20 -20 -20 -20 -20 -20 -20 -20 -18 -13 -15 -20 -20 -20 -20 -20 -20 -20 -20 -20 -20 -20 -20 -5 -19 -20 -20 -20 -18 -9
-20 -20 -20 -20 -20 -20 -20 -20 -20 -20 -20 -19 -7 -4 -20 -20 -20 -20 -20 -20 -20 -20 -20 -20 -20 -10 0 -5 -10 -20 -20 -20
-20 -20 -20 -20 -20 -20 -20 -20 -20 -20 -20 -20 -20 -2 -20 -20 -20 -20 -20 -20 -20 -20 -20 -20 -20 -20 -20 -20 -16 -1 3 1
-20 -20 -20 -20 -20 -20 -20 -20 -20 -20 -20 -20 -20 -20 -20 -1 -20 -20 -20 -20 -20 -20 -20 -20 -20 -20 -20 -20 -20 -20 -20 -20
-20 -17 -11 -4 -20 -20 -20 -20 -20 -20 -20 -20 -20 -20 -20 -20 2 -11 -20 -20 -20 -20 -20 -20 -20 -20 -20 -20 -20 -20 -20 -20
1 -19 -20 -17 7 25 -14 -20 -20 -20 -20 -20 -20 -20 -20 -20 -20 -20 -20 -14 -20 -20 -20 -20 -20 -20 -20 -20 -20 -20 -20 -20
-5 -12 -20 -20 -20 -20 27 -20 -20 -20 -20 -20 -20 -20 -20 -20 -20 -20 -20 -20 -20 -20 -20 -20 -20 -20 -20 -20 -20 -20 -20 -20
-20 -20 -20 -20 -20 -20 13 -11 15 -19 -20 -20 -20 -7 -20 -20 -20 -20 -20 -20 -20 -11 -20 -12 -20 -20 -20 -20 -20 -20 -20 -20
-20 -20 -20 -20 -20 -20 -20 -20 -18 -20 14 10 -20 -20 27 26 -20 -20 -20 -20 -20 -20 -20 -20 -12 -20 -20 -20 -20 -20 -20 -20

GFSFLT1_prec_radar_090.txt.gz
Reflectivity
-20 -20 -20 -20 -20 -20 -20 -20 -20 -20 -20 -20 -20 -20 -20 -20 -19 17 15 9 26 7 -5 -12 12 13 -11 -3 -20 -20 -20 -20
-20 -20 -20 -20 -20 -20 -20 -20 -20 -20 -20 -20 -20 -20 -20 -20 -20 -20 18 33 27 31 9 35 16 17 12 -11 -9 -20 -3 -20
-20 -20 -20 -20 -20 -20 -20 -20 -20 -20 -20 -20 -20 -20 -17 -20 -20 -20 1 10 18 8 9 5 26 23 11 14 0 -19 5 -5
-20 -20 -20 -20 -20 -20 -20 -20 -20 -20 -20 -20 -15 -20 -13 -19 -20 -20 -12 -2 18 21 21 28 17 27 18 25 1 15 16 7
-20 -20 -20 -20 -20 -20 -20 -20 -20 -20 -20 -20 -20 -20 -20 -20 -20 -6 18 15 14 9 27 25 27 32 26 17 9 10 9 -12
-20 -20 -20 -20 -20 -20 -20 -20 -20 -20 -20 -20 -20 4 -20 -9 -3 -20 -1 9 23 28 24 33 36 34 28 14 -12 8 4 14
-20 -20 -20 -20 -20 -20 -20 -20 -20 -20 -20 -18 -20 -11 -20 -20 -11 -20 -12 -4 20 18 30 25 26 28 23 15 29 15 7 -10
-20 -20 -20 -20 -20 -20 -20 -20 -20 -20 -20 -20 -5 6 -20 -20 -20 -20 -20 -4 -11 18 21 18 20 18 21 24 27 14 -9 -20
-20 -20 -20 -20 -20 -20 -20 -20 -20 -20 -20 -20 -19 -13 -20 -20 -20 -20 -20 -20 -20 -20 -20 -20 -20 -18 -8 13 12 6 -4 -12
-20 -20 -20 -20 -20 -20 -20 -20 -20 -20 -20 -20 -20 -20 -20 -20 -20 -20 -20 -20 -20 -20 -20 -20 -20 -20 -20 13 15 3 -11 -20
-20 -20 -20 -20 -20 -20 -20 -20 -20 -20 -20 -20 -20 -20 -20 -20 -20 -20 -20 -20 -20 -20 -20 -20 -20 -20 -20 -17 -18 -20 -20 -20
-20 -20 -20 -20 -20 -20 -20 -20 -20 -20 -20 -20 -20 -20 -20 -20 -20 -20 -20 -20 -20 -20 -20 -20 -20 -20 -20 -20 -20 -20 -20 -20
-20 -20 -20 -20 -20 -20 -20 -20 -20 -20 -20 -20 -20 -20 -20 -20 -20 -20 -20 -20 -20 -20 -20 -20 -20 -20 -20 -20 -20 -20 -20 -20
-20 -20 -20 -20 -20 -20 -20 -20 -20 -12 -20 -20 -20 -7 -20 -20 -20 -20 -20 -20 -20 -20 -20 -20 -20 -20 -20 -20 -20 -20 -20 -20
-20 -5 -18 24 -16 -7 1 -20 -20 19 -20 -20 -20 -20 -20 -20 -20 -20 -20 -20 -20 -20 -20 -20 -20 -20 -20 -20 -20 -20 -20 -20
-20 -20 -20 -7 14 20 17 -18 -9 -20 -18 -11 -20 -20 -20 -20 -20 -20 -20 -20 -20 -20 -20 -20 -20 -20 -20 -20 -20 -20 -20 -20
-20 -20 -20 -20 -20 -20 6 4 -15 -11 6 -14 -19 -19 -19 -20 -19 -20 -20 -20 -20 -20 -20 -20 -20 -20 -20 -20 -20 -20 -20 -20
-9 -20 -20 -20 -20 -20 -20 -20 -20 5 2 16 -3 -5 24 19 27 -19 -17 7 -20 -20 -20 -20 -20 -20 -20 -20 -20 -20 -20 -20
10 11 11 -20 -20 -20 -20 -20 -20 -20 -20 -19 -9 -6 11 15 23 26 24 21 21 -20 -20 -20 -20 -20 -20 -20 -6 -20 -20 -20

GFSFLT1_prec_radar_096.txt.gz
Reflectivity
-20 -20 -20 -20 -20 -20 -20 -20 -20 -20 -20 -20 -20 -20 -20 -7 16 10 -5 3 -5 4 3 3 15 20 14 10 0 -11 1 -15
-20 -20 -20 -20 -20 -20 -20 -20 -20 -20 -20 -20 -20 -20 -20 -20 -20 12 13 -0 18 -20 -7 -5 17 7 -8 -20 -20 -20 -18 -20
-20 -20 -20 -20 -20 -20 -20 -20 -20 -20 -20 -20 -6 9 -10 -20 -20 -20 -20 27 7 16 15 -18 14 27 18 3 -20 -20 -20 -15
-20 -20 -20 -20 -20 -20 -20 -20 -20 -20 -20 -20 -10 -1 -9 -20 -20 -20 -20 -20 19 17 11 -9 27 24 18 12 19 2 -17 -20
-20 -20 -20 -20 -20 -20 -20 -20 -20 -12 -20 9 -18 -19 -20 -20 -20 -20 -20 -20 -20 -13 34 21 18 27 35 16 11 6 13 16
-20 -20 -5 9 -19 -20 -20 -20 -20 -20 -2 -19 -20 -20 -20 -20 -20 -20 -20 -17 -20 3 7 9 -7 15 27 24 1 -11 5 25
-20 -20 4 -14 -20 -20 -20 -20 -20 -20 12 -20 -20 -20 -20 -20 -20 -20 -5 8 -1 4 -10 -5 6 21 23 35 -2 -7 23 26
-20 -20 -10 -5 -20 -20 -20 -20 -20 -20 13 -20 -20 -20 -20 -20 -20 -20 -20 -10 12 -13 -9 3 17 5 20 25 13 16 28 25
-20 -20 -20 -8 -20 -20 -20 -20 -20 -20 -12 -20 -20 -20 -20 -20 -20 -20 -20 -19 -20 -20 -14 -20 -19 27 16 26 24 28 30 28
-20 -20 -20 -15 -20 -20 -20 -20 -20 -7 -7 -20 -20 -20 -20 -20 -20 -20 -20 -19 -2 -11 -20 -20 -17 -12 -7 -9 9 25 25 24
-20 -20 -20 -20 -20 -20 -20 -20 -20 -19 -20 -20 -20 -20 -20 -20 -20 -20 -20 -20 -2 -9 -20 -20 -20 -20 -20 -14 -8 -17 -1 -15
-20 -20 -4 -6 -20 -20 -20 -20 -20 -20 -20 -20 -20 -20 -20 -20 -20 -20 -20 -20 -20 -20 -20 -20 -20 -20 -13 -20 -20 -18 -20 -8
3 -4 -10 -1 -20 -20 -20 -20 -20 -20 24 -20 -20 -20 -20 -20 -20 -20 -20 -20 -20 -20 -20 -20 -20 -20 -20 -5 -13 5 12 9
-20 2 -17 -20 -20 -20 -20 -20 25 -20 17 -20 -20 -20 -20 -20 -20 -20 -20 -20 -20 -20 -20 -20 -20 -20 -20 -20 -20 -20 -20 -20
0 -20 -8 -3 -20 -20 -20 6 18 21 -14 -7 -20 -20 -14 -20 -20 -20 -20 -20 -20 -20 -20 -20 -20 -20 -20 -20 -20 -20 -20 -20
9 15 9 11 20 16 25 25 22 21 25 -11 -19 -20 3 -20 -20 -20 -20 -20 -20 -20 -20 -20 -20 -20 -20 -20 -20 -20 -20 -20
-9 -5 -3 9 16 17 19 -19 -19 16 28 10 11 -13 -20 -20 -20 -20 -20 -20 -20 -20 -20 -20 -20 -20 -20 -20 -20 -20 -20 -20
-18 -20 -20 5 15 21 30 27 23 -10 -17 12 19 25 -1 -15 -18 -20 -20 -20 -20 -20 -20 -20 -20 -20 -20 -20 -20 -20 -20 -20
33 30 5 7 26 31 20 22 16 1 3 -13 9 12 11 2 -4 5 -10 -7 -20 -20 -20 -20 -20 -19 10 14 19 12 -0 -2

GFSFLT1_prec_radar_099.txt.gz
Reflectivity
-20 -20 -20 -20 -20 -20 -20 -20 -20 -20 -20 -20 -20 -20 -16 9 0 -9 6 5 -18 5 3 -9 21 35 19 30 33 32 26 3
-20 -20 -20 -20 -20 -20 -20 -20 -20 -20 -20 -20 -20 -20 -20 -6 -20 -20 -10 2 -12 -17 -2 -5 1 26 34 30 31 32 32 17
-20 -20 -20 -20 -20 -20 -20 -20 -20 -20 -20 -20 -20 -20 -20 -20 -19 -20 8 15 14 22 -19 22 -8 8 25 22 21 22 11 12
-20 -20 -20 -20 -20 -20 -20 -20 -20 -20 -20 -20 -20 -20 -20 -11 -16 -20 -8 3 8 15 28 -6 31 18 4 24 15 6 -5 -19
-20 -20 -20 -20 -20 -20 -20 -20 -20 -20 -20 -20 -20 -20 -20 -20 -20 -20 -20 -20 -20 27 14 22 -5 24 6 25 5 -15 6 -17
-20 -20 -20 -20 -20 -20 -20 -20 -20 -20 -20 -20 -20 -20 -20 -20 -20 -20 -20 -20 -20 4 18 19 -0 20 9 28 32 8 11 5
-20 -20 -20 -20 -20 -20 -20 -20 -20 -20 -20 -20 -20 -20 -20 -20 -20 -20 -20 -20 -20 6 5 -11 -11 22 27 12 21 19 4 -18
-20 -20 -20 -20 -20 -20 -20 -20 -20 -9 -14 -20 9 -20 -20 -20 -20 -20 -20 -18 2 11 14 15 -14 8 -5 -5 11 29 28 27
-20 -20 -20 -20 -20 -20 -16 -20 -20 -20 -20 -20 -20 -20 -20 -20 -20 -20 -20 -18 -4 -17 18 17 -5 -20 -20 -20 20 32 23 -9
-20 -20 -20 -20 -20 -19 -20 -20 -20 -20 -20 3 -20 -20 -20 -20 -20 -20 -20 -20 -20 -14 -20 -20 2 -20 -19 22 -6 -7 8 13
-20 -20 -20 -20 -12 -14 -17 -20 -20 -20 1 -2 -20 -20 -20 -20 -20 -20 -20 -20 -12 -20 -20 -20 5 4 1 -9 10 2 12 21
-20 -20 -12 7 -3 -20 -20 -16 8 8 -6 -3 -20 -20 -20 -20 -20 -20 -20 -20 -15 -20 -20 -20 -18 -20 -20 -19 -11 -9 -9 -20
-4 -20 -7 13 -11 -20 -20 -6 10 10 -2 23 -4 -20 -20 -20 -20 -20 -20 -20 -20 -20 -20 -20 -20 -20 -15 -2 -2 -18 0 -16
21 13 19 4 10 -5 9 11 10 9 -3 -19 -20 -20 -20 -20 -20 -20 -20 -20 -20 -20 -20 -20 -3 1 -11 4 -10 -20 -20 -6
24 2 9 22 22 10 8 5 -3 -6 -20 -17 -20 -20 -20 -20 -20 -20 -20 -20 -20 -20 -20 -20 -20 -15 -15 -18 6 -15 -16 -16
21 15 21 27 17 15 23 3 1 28 22 23 18 -3 -20 -20 -20 -20 -20 -20 -20 -20 -20 -20 -20 -20 -20 -20 -20 -17 -13 -18
25 26 24 25 25 25 16 20 8 -14 6 16 26 23 -19 -20 -20 -20 -20 -20 -20 -20 -20 -20 -20 -20 -20 -20 -20 -20 -20 -7
4 -7 11 9 4 -20 10 -7 10 -1 1 9 22 30 24 25 3 -17 -14 -20 -20 -20 -20 -20 -20 -20 -11 -19 -19 -20 -20 -20
33 -8 10 13 7 4 3 -1 -7 1 19 26 22 14 -1 5 1 1 7 12 11 4 -20 -12 -17 4 7 -19 -13 -18 -5 7

GFSFLT1_prec_radar_102.txt.gz
Reflectivity
-20 -20 -20 -20 -20 -20 -20 -20 -20 -20 -20 -20 -20 -18 -20 -20 -20 0 -20 -10 5 7 19 -20 -9 15 19 31 36 30 31 30
-20 -20 -20 -20 -20 -20 -20 -20 -20 -20 -20 -17 -20 -20 -20 8 -4 -20 2 0 -8 22 8 -6 -9 17 28 23 33 36 31 24
-20 -20 -20 -20 -20 -20 -20 -20 -20 -20 -20 -20 -20 -7 -20 -8 -12 5 7 7 6 11 -20 7 17 2 6 25 26 35 34 28
-20 -20 -20 -20 -20 -20 -20 -20 -20 -20 -20 -20 -20 -17 4 5 10 -19 2 13 20 -5 17 8 -2 25 -17 10 31 35 34 24
-20 -20 -20 -20 -20 -20 -20 -20 -20 -20 -20 -20 -20 -20 -16 -20 -10 -20 -20 -10 7 -12 -16 18 -13 28 15 6 14 23 23 19
-20 -20 -20 -20 -20 -20 -20 -20 -20 -20 -20 -20 -20 -20 -20 -20 -20 -5 -20 7 13 8 16 8 24 21 26 -4 3 10 23 15
-20 -20 -20 -20 -20 -20 -20 -20 -20 -20 -20 -20 -20 -20 -20 -20 -20 -20 -8 -2 -2 1 24 21 -4 -5 24 25 -2 -1 4 17
-20 -20 -20 -20 -20 -20 -20 -20 -20 -20 -20 -20 -20 -20 -20 -20 -20 -20 -20 -20 1 2 11 18 0 17 -20 17 27 25 16 25
-20 -20 -20 -20 -20 -20 -20 -20 -20 -20 -20 -20 -20 -20 -20 -20 -20 -20 -20 -16 2 2 13 15 13 -17 -20 17 17 30 22 1
-20 -20 -20 -20 -20 -20 -20 -20 -19 -3 4 -20 -20 -20 -20 -20 -20 -20 -20 -4 -15 -18 10 11 -20 -2 3 13 -6 10 -1 1
-20 -16 -20 -20 -20 -20 -20 -20 -20 8 10 -17 -11 -20 -20 -20 -20 -20 -18 1 -4 6 -15 9 5 -1 6 -13 -20 -7 12 13
-20 3 -20 -20 -20 -20 -20 -20 -20 13 3 -20 -20 -20 -20 -20 -20 -20 -20 2 -20 -2 -2 10 -18 -15 -9 8 -3 13 22 20
-8 12 12 -20 -20 -2 -20 6 8 -12 -20 -20 -20 -20 -20 -20 -20 -20 -20 -14 -15 -20 -20 10 -20 1 3 -0 -7 -19 -20 -18
14 11 -1 1 7 13 9 15 -7 13 -6 10 -18 -20 -20 -20 -20 -20 -8 -13 -20 -20 0 1 -19 -20 -1 -9 -19 -4 -9 -19
13 13 24 1 11 16 2 -2 -9 9 15 18 29 -20 -20 -20 -20 -20 -11 -20 -20 -11 -13 -7 -2 1 -20 -20 -11 -11 -14 -20
30 28 26 6 1 4 9 1 10 21 31 23 27 18 -20 -11 -20 -20 -9 -2 -20 -5 -5 -3 0 -6 -17 -20 -20 -20 -16 -7
40 33 31 26 5 7 12 18 25 27 20 16 -5 2 -20 -20 5 -19 -20 -5 -5 -7 -20 6 10 7 15 -20 -0 6 -0 -20
40 38 33 27 24 22 20 21 21 25 27 23 13 7 1 9 23 6 5 -13 8 -20 -15 2 -0 3 2 -20 -20 -5 6 -1
37 37 36 32 24 16 10 25 32 26 20 -18 -20 -12 7 4 17 23 21 12 -2 0 -0 -6 13 -4 10 11 13 -10 -20 -20

GFSFLT1_prec_radar_105.txt.gz
Reflectivity
-20 -20 -20 -20 -20 -20 -20 -20 -20 -20 -20 -20 -20 -20 -20 -20 -20 -5 -1 8 11 26 4 10 6 6 7 -4 -14 25 33 32
-20 -20 -20 -20 -20 -20 -20 -20 -20 -20 -20 -20 -20 -20 -20 -20 -20 -4 6 7 12 -0 8 -4 -20 -20 -20 0 9 34 30 32
-20 -20 -20 -20 -20 -20 -20 -20 -20 -20 -20 -20 -20 -20 -20 -20 -5 -14 -20 -20 1 21 18 -2 -17 -20 -20 5 29 30 38 35
-20 -20 -20 -20 -20 -20 -20 -20 -20 -20 -20 -20 -20 -20 -20 -13 -1 2 -2 -7 6 16 15 6 -4 -20 -20 8 22 31 35 34
-20 -20 -20 -20 -20 -20 -20 -20 -20 -20 -20 -20 -20 -20 -20 -20 -10 -6 0 -8 -6 6 5 -20 -1 -20 -6 5 10 23 34 29
-20 -20 -20 -20 -20 -20 -20 -20 -20 -20 -20 -20 -20 -20 -20 -20 -20 -15 3 1 0 12 0 10 -6 1 -12 18 10 20 33 31
-20 -20 -20 -20 -20 -20 -20 -20 -20 -20 -20 -20 -20 -20 -20 -20 -20 -20 -14 -2 6 11 11 -10 -16 5 -13 -7 9 3 7 9
-20 -20 -20 -20 -20 -20 -20 -20 -20 -20 -20 -20 -20 -20 -20 -20 -20 -20 -20 -14 -20 9 13 14 -4 -2 7 23 15 6 13 -4
-20 -20 -20 -20 -20 -20 -20 -20 -20 -20 -20 -20 -20 -20 -20 -20 -20 -20 -20 -20 -20 -20 -17 -5 16 5 3 -20 22 -3 28 27
-20 -20 -20 -20 -20 -20 -20 -20 -20 -20 -20 -20 -5 -20 -20 -20 -20 -20 -20 -20 -20 -4 1 8 5 5 4 7 -2 -12 13 29
-20 -20 -20 -20 -20 -20 -20 -20 -20 -20 -20 -20 -12 -20 -20 -20 -20 -20 -20 -20 -20 2 -3 -6 18 9 -15 -17 -16 -20 21 10
-20 -20 -20 -20 -20 -20 -20 -20 -20 -20 -20 7 -20 -4 -20 -20 -20 -20 -20 -17 -18 -19 -3 -5 -18 -20 -16 9 -18 -14 -12 -17
-20 -20 9 -20 -4 12 -20 -1 -20 -20 -19 10 6 -11 -20 -20 -20 -20 -20 -20 -17 -19 -20 -20 -5 -19 -19 2 -6 -15 -20 -20
-20 -20 -2 3 7 19 8 6 1 -6 -6 15 14 12 -16 -11 18 -20 -20 -14 2 -20 -0 -0 -4 -6 -5 -17 -19 1 -10 -16
-20 -20 12 6 22 26 23 11 -5 9 7 3 2 12 14 27 -13 -20 -5 -19 -16 10 -20 4 -20 -17 -7 -7 -20 -18 1 -7
-20 -20 9 16 15 20 26 23 21 20 -5 16 1 20 10 25 12 -19 3 3 1 -20 -20 -7 -15 -18 -19 -0 -6 -18 -18 -14
-9 -5 17 32 17 23 20 20 21 20 12 8 21 14 21 20 -20 -18 -8 -11 -6 11 12 6 14 10 13 1 4 5 6 7
19 30 41 33 31 25 23 24 21 24 20 29 15 6 21 18 13 8 -14 -20 -9 2 -3 -11 -20 -20 -6 -18 -13 -20 4 7
21 34 39 38 35 34 28 24 25 24 22 23 27 20 19 16 13 1 -8 7 23 25 15 -4 -18 -16 -11 -20 -3 -20 -20 15

GFSFLT1_prec_radar_111.txt.gz
Reflectivity
-20 -20 -20 -20 -20 -20 -20 -20 -20 -20 -20 -20 -20 -20 -20 -20 -20 -20 -20 -20 -19 -20 -20 -20 -20 -20 -20 -16 -20 -8 -20 -20
-20 -20 -20 -20 -20 -20 -20 -20 -20 -20 -20 -20 -20 -20 -20 -20 -20 -20 -20 -20 -20 -20 -20 -20 -20 -19 4 10 3 -19 -5 -14
-20 -20 -20 -20 -20 -20 -20 -20 -20 -20 -19 9 -20 -20 -20 -20 -20 -20 -20 -20 -20 -20 -11 -20 6 -1 -5 -18 12 13 -9 -7
-20 -20 -20 -20 -20 -20 -20 -20 -20 -20 -6 -7 -20 -20 -20 -20 -20 -20 -20 -20 -20 -20 -20 -20 -3 -8 -20 -20 -1 5 -16 9
-20 -20 -20 -20 -20 -20 -20 -9 -18 -20 -20 -20 -20 -20 -20 -20 -20 -20 -20 -20 -20 -20 -20 -20 -20 -20 -20 -10 -18 -20 5 2
-20 -20 -20 -20 -20 -20 -20 -20 28 -19 -20 -20 -20 -20 -20 -20 -20 -20 -20 -20 -20 -20 -20 -20 -20 -20 -20 -7 -12 -20 -8 9
-20 -20 -20 -20 -20 -20 -20 -20 -20 24 23 -19 -20 -20 -20 -20 -20 -20 -20 -20 -20 -20 -20 -20 -20 -20 -20 -20 -16 -20 -10 5
-20 -20 -20 -20 -20 -20 -20 -20 -20 -20 -18 -20 -20 -20 -20 -20 -20 -20 -20 -20 -20 -20 -20 -20 -20 -20 -20 -15 -20 -20 -17 3
-20 -20 -20 -20 -20 -20 -20 -20 -20 -20 -20 -20 -20 -20 -20 -20 -20 -20 -20 -20 -20 -20 -20 -20 -20 -20 -20 -19 -20 -20 -19 -20
-20 -20 -20 -20 -20 -20 -20 -20 -20 -20 -20 -20 -17 -20 -20 -17 -20 -20 -20 -20 -20 -20 -20 -20 -1 -20 -20 -20 -20 -20 -20 -20
-20 -20 -20 -20 -20 -20 -20 -20 -20 -20 -20 -20 -20 -20 -20 -4 -12 -20 -20 -20 -20 -20 -20 -20 -12 -20 -20 -10 -20 -19 -20 -20
-20 -20 -20 -20 -20 -20 -20 -20 -20 -20 -20 5 -8 -20 -20 23 28 1 10 -20 3 -20 -20 -9 8 -20 -20 -18 -20 -20 -20 -7
-20 -20 -20 -20 -20 -20 -20 -20 -20 -20 19 24 22 22 26 11 5 -4 -3 5 28 -20 -20 -20 -2 -20 2 -20 -5 -8 -20 -20
-20 -20 -20 -20 -20 -20 -20 -20 1 3 -20 -0 25 27 26 14 4 -8 -4 11 5 -20 -20 -13 -6 -14 10 -20 -11 6 -14 -20
-20 -20 -20 -20 -20 -20 4 -15 -19 -3 -7 6 22 25 29 31 28 -8 2 7 25 -18 -10 -3 14 8 12 19 -13 0 -16 -19
-14 -17 -20 -20 -20 -20 1 19 21 17 20 2 15 16 25 28 4 -20 22 15 28 15 4 12 14 3 6 10 5 2 14 15
-2 -16 -18 -14 -18 -16 0 18 9 11 12 12 19 4 23 15 9 32 2 -4 16 -6 25 7 8 17 19 15 13 11 11 4
-7 -11 8 -3 -0 4 -1 19 28 15 18 17 17 12 28 33 18 12 27 14 8 -17 10 8 8 8 14 15 15 -9 -12 -12
-4 -19 -9 -14 -3 0 6 19 35 30 26 24 7 19 16 27 29 35 18 12 -6 -9 -0 10 1 14 17 16 9 -9 -0 -10

GFSFLT1_prec_radar_114.txt.gz
Reflectivity
-20 -20 -20 -20 -20 -20 -20 -20 -20 -20 -20 -20 -20 -20 -20 -20 -20 -20 -20 -20 -20 -20 -20 -20 -20 -20 -14 -20 -20 -10 -20 14
-4 -20 -20 -20 -20 -20 -20 -20 -20 -20 -20 -13 -14 -20 -20 -20 -20 -20 -20 -20 -20 -3 -20 -20 -20 -20 -8 -3 1 -3 13 4
-20 -16 -20 -20 -20 -20 -20 -20 -20 -20 -20 -20 -5 -20 -20 -20 -20 -20 -20 -20 -20 -20 -20 -20 -20 -20 -20 12 9 14 11 11
-20 -20 -20 -20 -20 -20 -20 -20 -20 -20 -20 6 8 -12 15 -1 -9 -20 -20 -20 -20 -20 -20 -20 -20 -20 -20 -12 4 6 8 9
-20 -20 -20 -20 -20 -20 -20 -20 -20 -20 -20 -20 -20 -20 -20 -20 -20 -20 -20 -20 -20 -20 -20 -12 -20 -20 -4 0 -20 -16 9 -5
-20 -20 -20 -20 -20 -20 -20 -20 -20 -17 -17 18 -19 -4 -1 -20 -20 -20 -20 -20 -20 -20 -20 -20 -20 -20 -20 -20 -20 -1 -14 1
-20 -20 -20 -20 -20 -20 -20 -20 -20 -20 -20 -6 30 31 12 -4 -20 -20 -20 -20 -20 -20 -20 -20 -20 -20 -20 -20 -20 1 -15 -3
-20 -20 -20 -20 -20 -20 -20 -20 -20 -20 -20 -20 -16 -8 20 -14 -17 -20 -20 -20 -20 -20 -20 -11 -18 -20 -20 -20 -3 -2 -18 -7
-20 -20 -20 -20 -20 -20 -20 -20 -20 -20 -20 -20 -20 -20 -20 -20 10 -20 -20 -20 7 -20 -20 -20 -20 -20 -20 -20 6 3 -6 -1
-20 -20 -20 -20 -20 -20 -20 -20 -19 -20 -20 -20 -20 -20 21 11 -20 -20 -20 -20 -15 -20 -20 -20 -20 -20 -20 4 4 12 1 -11
-20 -20 -20 -20 -20 -20 -20 3 17 -1 -20 -20 -20 -20 4 9 -3 -12 -20 -20 -20 -20 -20 -20 -20 -20 -5 9 2 18 -9 -20
-20 -20 -20 -20 -20 -20 -20 -2 5 -4 -20 -20 -20 -20 -20 3 -10 12 -20 24 -0 -20 -20 -20 -20 -14 -19 9 13 -14 -14 -20
-20 -20 -20 -20 -20 -20 -20 -12 -6 10 -20 2 -7 21 17 21 20 27 -7 -10 -12 8 -20 -20 -20 -1 -2 -18 5 15 -3 14
-20 -20 -20 -20 -20 -20 -20 -1 -20 -20 -20 -20 5 14 7 20 27 25 26 16 29 5 -17 -15 -20 -12 -10 5 5 15 -2 -13
-20 -20 -20 -20 -20 -19 -20 -20 -20 -16 -20 -20 -20 23 20 15 26 26 27 27 29 12 -4 -20 -12 7 4 -5 18 15 -17 12
-20 -20 -20 -20 -20 -19 -20 -9 8 -12 5 -20 -10 -20 -20 -3 24 15 -11 29 31 24 3 -20 -14 -17 2 16 14 15 10 8
-20 -20 -20 -20 -17 -18 -14 -20 -7 15 2 17 5 27 14 -9 16 24 22 30 24 -12 21 -19 18 -20 16 7 19 17 3 7
-20 -20 -20 -10 -8 -9 -10 -13 -20 -9 8 12 -2 1 9 -6 30 25 28 27 30 -9 1 23 -20 21 4 12 13 -5 19 13
-20 -20 -20 -18 -19 -20 -14 -13 -14 -2 28 28 13 16 23 14 26 6 20 14 29 25 2 -20 -0 2 20 -7 -15 -15 5 8

GFSFLT1_prec_radar_117.txt.gz
Reflectivity
-20 -20 -20 -20 -20 -20 -20 -20 -20 -20 -20 -20 -20 -20 -20 -20 -20 -20 -20 -20 -20 -20 -20 -20 -20 -20 -3 -14 -20 -20 -20 -20
-2 -20 -20 3 -14 -20 -20 -20 -20 -20 -20 -20 -20 -20 -20 -20 -20 -20 -20 -20 -20 -20 -20 -20 -20 -5 -9 12 13 -4 10 1
17 16 8 12 -7 -20 -20 -20 -20 -20 -20 -20 -20 -20 -20 -20 -20 -19 -20 -20 -20 -20 -20 -20 -20 -11 -11 12 13 13 -1 14
23 23 20 5 -20 -20 -20 -20 -20 -20 -20 -20 -20 -20 -20 22 3 7 8 -16 -20 -20 -20 -20 -20 -15 -3 -11 -12 11 11 14
12 12 -17 -20 -20 -20 -20 -20 -20 -20 -20 -20 -10 -20 -20 -20 -16 11 -19 -19 -7 -20 -20 -20 -20 -20 3 -20 -19 -7 13 6
-20 -14 -17 -20 -20 -20 -20 -20 -20 -20 -18 -20 -20 -20 -12 -9 -20 -20 -20 12 -20 -20 -20 -20 -20 -16 -1 -1 9 -8 15 -2
-20 -20 -20 -20 -20 -20 -20 -20 -20 -20 17 13 -6 -20 -15 3 13 29 -16 17 9 -14 -20 -20 -20 -20 -20 -20 -18 -4 2 14
-20 -20 -20 -20 -20 -20 -20 -20 -20 -20 7 13 10 -14 5 -20 1 27 39 3 -7 -18 17 -20 -20 -20 -20 -20 -7 -20 -20 -9
-20 -20 -20 -20 -20 -20 -20 -20 -20 -20 -20 -20 -18 -9 -0 -11 -20 5 -19 -20 -20 -20 -20 8 -20 -20 -20 -4 -8 -20 -7 11
-14 -18 -16 -20 -20 -20 -20 -20 -20 -20 -20 -20 -20 -20 -20 -20 -20 29 -19 -20 -20 -20 -20 -10 -18 27 -20 11 1 4 -9 4
6 -20 -20 -20 -20 -20 -20 -20 -20 -20 -14 -20 -20 -20 -20 -20 -20 -20 -20 -1 -20 -20 -20 -4 5 -20 -20 -1 -2 -20 -20 14
-14 -20 -20 -20 -20 -20 -20 -20 -20 -14 1 4 -20 -20 -20 -20 -20 22 -20 -20 4 26 -15 4 -2 -20 -20 -20 -20 -20 -16 10
-9 -20 -20 -20 -20 -20 -20 -20 -10 19 17 15 0 6 6 1 -2 19 15 18 23 25 23 28 -10 -20 -20 -20 -20 -20 -15 3
5 -20 -20 -20 -20 -20 -20 -20 13 8 -19 11 17 13 17 11 14 -11 -12 2 13 24 21 26 25 -14 -20 -18 -14 -20 -15 -20
2 16 -20 -20 -20 -20 -20 -20 -20 -20 -20 -20 -20 -2 24 14 11 15 -1 23 24 23 25 25 26 20 -4 -7 8 -7 8 -11
-7 -12 0 -20 -20 -20 -20 -20 -20 -20 -19 -20 -20 -14 4 16 22 20 24 22 23 24 23 23 14 16 7 1 0 16 -13 5
-18 -20 -20 -20 -18 -20 -20 -20 -20 -20 -6 -2 -14 -20 1 -20 -15 2 7 15 22 22 28 29 26 16 14 8 7 -20 -20 -9
-20 -18 -19 -20 -20 -11 -19 -18 -20 -20 -20 -20 -19 -9 -2 -13 -5 0 10 17 17 18 20 37 28 -11 6 4 8 -6 -9 -9
-20 -20 -20 -17 -20 -20 -20 -20 -20 -20 -20 -20 -3 15 1 4 -4 12 -2 19 30 30 40 25 28 -8 18 7 6 1 -15 -20

GFSFLT1_prec_radar_120.txt.gz
Reflectivity
-20 -20 -20 -20 -20 -20 -20 -20 -20 -20 -20 -20 -20 -20 -20 -20 -20 -20 -20 -20 -20 -20 -20 -20 -20 -20 -20 -20 -20 -20 -20 -20
-20 -20 -20 -20 -20 -20 -20 -20 -20 -20 -20 -20 -20 -20 -20 -20 -20 -20 -20 -20 -20 -20 -20 -20 -20 -20 -20 4 7 6 -1 -17
-20 -20 -16 -20 -20 -20 -20 -20 -20 -20 -20 -20 -20 -20 -20 -20 -20 -20 -20 -20 -20 -20 -20 -20 -20 -1 2 -2 2 5 9 13
-20 -20 -20 -19 -20 -20 -20 -20 -20 -20 -20 -20 -20 -20 -20 -20 -20 -20 -20 -20 -20 -20 -20 -20 -20 -20 -19 -1 -20 7 -17 -6
-20 -20 -8 7 -20 -20 -20 -20 -20 -20 -20 -20 -20 -20 -20 -20 -20 -20 18 -20 -20 -20 -20 -20 -20 7 -17 -20 -20 -17 -18 -16
-20 -20 -6 -20 -20 -20 -20 -9 -19 -20 -20 -13 -19 -20 -20 -20 -20 -20 -19 31 26 -20 -20 -20 -20 -20 -20 -20 -20 -20 3 -6
-20 -20 -20 -20 -5 -18 -2 5 -19 1 -20 -14 -20 -8 -20 -20 -20 -20 -20 -20 7 3 -6 -20 -20 -20 -20 -20 -19 -20 -16 -7
-20 -20 -20 -20 -13 -9 10 7 23 15 3 14 15 -20 -1 -20 -20 -20 -20 28 19 25 27 26 8 -7 -16 -20 5 1 -6 -4
-20 -20 -20 -20 -20 -20 17 11 3 13 -7 1 -3 -15 -19 9 -10 -20 -18 -6 -15 6 36 -5 -15 -9 -20 -20 -11 4 11 13
-17 -20 -20 -20 -20 -20 4 14 15 15 0 4 -19 -18 -18 -20 14 23 -10 -16 -20 -20 -20 -12 -11 -13 -20 2 -20 -13 9 13
13 7 -20 -20 -19 -4 -16 -16 11 9 8 -0 -18 -19 -20 -20 -20 -6 -12 4 -18 -20 24 -15 -13 -11 -7 -12 -20 9 11 7
26 21 13 -20 -20 -20 -20 -17 -5 3 2 -17 -20 -20 -20 -20 -4 -19 11 -13 18 -13 25 26 -9 23 -15 -13 -18 16 14 4
37 33 13 -7 -11 -14 2 -7 -18 -19 -15 -20 -20 -17 2 5 13 15 12 -9 -20 21 23 21 13 -20 -20 -3 7 -5 7 -3
35 24 27 -19 -20 -20 -20 -20 -20 -20 8 -15 -20 -11 3 8 12 11 14 -1 -0 -14 20 -20 -17 -20 -20 11 -15 -18 25 -7
2 6 13 -18 -20 -20 -20 -20 -20 -20 -20 -20 -10 -6 1 -7 12 13 15 10 13 -11 19 16 15 32 -20 10 -11 15 -10 -20
9 -8 -16 -10 -18 -20 -20 -20 -20 -20 -20 -20 2 -19 -20 5 21 4 14 20 13 4 24 13 8 6 20 26 18 3 -3 -6
2 9 -2 -16 -13 2 -20 -20 -20 -20 -20 -20 -20 -20 -20 -20 -2 -20 -20 18 12 19 20 40 32 24 27 20 6 8 7 11
-20 -15 -17 -17 -14 -16 -19 -20 -20 -20 -20 -20 -20 -20 -1 -18 -20 -20 -20 -20 -17 13 11 9 17 24 27 41 37 26 14 7
-15 -15 -20 -17 -20 -20 -20 -20 -20 -20 -20 -20 -20 -20 -14 -1 -18 -20 -20 -20 -17 -20 3 29 4 27 33 37 25 31 23 -3

GFSFLT1_prec_radar_123.txt.gz
Reflectivity
-20 -20 -20 -20 -20 -20 -20 -20 -20 -20 -20 -20 -20 -20 -20 -10 -20 -20 -10 -20 -19 -19 -20 -20 -20 -20 -20 -20 -20 -20 -13 -18
-20 -20 -20 -20 -20 -20 -20 -20 -20 -20 -20 -20 -20 -20 -15 -10 -20 -20 -20 -20 -20 -20 -20 -20 -20 -20 -20 -20 -20 -20 -20 -20
-20 -20 -20 -20 -20 -20 -20 -20 -1 -20 -20 -20 -20 -20 -20 -10 -18 -20 -20 -20 -20 -20 -20 -20 -20 -20 -20 -20 -20 -17 4 11
-20 -20 -20 -20 -20 -20 -20 -7 -20 2 -20 -13 18 -8 2 5 -10 -1 -10 -17 -20 -20 -20 -20 -20 -20 -16 -20 -19 10 -19 2
-20 -20 -20 -20 -20 -20 -20 -20 -20 -20 16 -17 -20 -20 -20 -20 -20 -20 -19 -11 -20 -20 -20 -20 -20 -20 -10 -15 -20 -2 -6 -20
-20 -20 -20 -20 -20 -3 -20 -20 -20 -20 -20 6 13 -4 4 -4 -19 -20 -5 -7 -3 -20 23 -18 -19 -20 -18 -20 -20 -0 -11 -2
2 -20 -20 -20 -20 16 -14 -20 -20 -20 -20 -20 -6 9 6 6 3 -5 -20 -9 -20 -20 -6 -2 16 32 25 10 -0 -20 -20 -20
15 -5 -20 -20 -11 -5 -15 -20 -20 -20 -20 -20 -16 14 9 9 11 -7 6 -20 -20 -20 -11 23 -12 -2 17 23 12 3 -14 -15
7 17 -20 -20 -20 -20 -20 -20 -20 -20 -20 1 3 16 20 13 22 18 14 -20 -20 22 23 30 -8 -1 10 14 29 -11 -20 -20
4 2 18 21 1 21 -13 -7 12 21 8 26 8 25 24 16 2 22 12 6 -9 3 29 12 -3 -13 -7 -14 -6 18 -20 -20
13 -1 -1 9 16 17 4 8 -17 17 -2 0 24 14 18 -4 4 24 -15 6 8 -4 -14 -2 -20 -20 -20 -1 -7 -8 -4 -12
27 17 -8 -18 -16 2 12 1 2 -20 8 26 15 7 14 5 -2 -16 3 1 20 9 7 2 -15 -3 -20 -20 13 8 -11 -19
34 32 30 26 2 -20 -9 13 28 25 25 20 21 13 -2 10 -20 -16 1 -20 -20 -16 11 17 -1 -0 -20 -19 20 12 -19 -3
23 24 28 38 24 7 2 20 -6 -18 -19 -20 -20 -20 -20 -19 -11 -11 7 -6 -1 7 -17 -4 23 13 21 12 16 -6 1 -6
16 25 23 23 29 22 16 18 -5 -20 -20 -20 -20 -20 -20 -20 -18 -4 1 4 10 16 13 19 -4 -6 -4 8 16 9 -18 28
-7 -7 16 26 28 18 -7 -20 -20 -20 -20 -20 -20 -20 -20 -20 -20 -1 -6 6 15 18 16 8 19 17 14 18 15 17 10 26
6 12 1 -11 -8 -20 -20 -20 -20 -20 -20 -20 -20 -3 -20 -20 -20 -13 -20 -13 -5 13 -0 15 14 22 24 -5 9 8 3 0
-6 -9 -4 -7 -15 -19 -15 -20 -20 -20 -20 -20 -20 -20 -20 -12 -6 -14 -6 -20 -15 -3 20 8 19 39 29 22 32 20 24 28
-14 -9 -14 -20 -16 -20 -10 -18 -2 -15 -20 -20 -20 -20 -20 -20 -20 -20 -18 -17 -18 -20 -13 -20 -20 -6 3 12 34 11 32 40

GFSFLT1_prec_radar_129.txt.gz
Reflectivity
-20 -20 -20 -20 -20 -20 -20 -20 -20 -20 -20 -2 -12 -20 -20 -20 -20 -20 -20 -12 -4 -2 -5 -7 -9 -6 9 8 -14 -13 -12 -20
-20 -20 -20 -20 -20 -20 -20 -20 -20 -20 -17 -20 22 -20 -20 -20 -20 -20 -20 -20 -1 -20 -20 -10 -20 -20 -16 5 -20 4 6 -3
-20 -20 -20 -20 -20 -20 -20 -20 -20 -20 -20 -20 26 -19 -20 -20 -20 -20 -20 -20 -20 -7 -20 -20 -16 8 1 -11 -18 2 7 2
-10 -20 -20 -20 -20 -20 -20 -20 -20 -20 -19 28 -15 -17 -20 -20 -20 -20 -20 -20 -20 -20 -20 -20 -10 -4 -16 -20 -4 -18 5 -14
-5 4 -8 -17 2 -20 -20 -20 -20 -20 -20 13 3 32 -18 -20 -20 -20 -20 -20 -20 1 -0 -20 2 3 -20 -10 -18 -13 -19 -10
-10 5 -0 6 12 3 4 -15 -20 -20 -20 7 15 33 -9 -13 -20 -20 -19 -19 -20 -20 -7 1 0 -20 -19 -10 -20 -19 -15 -2
2 -5 5 3 14 5 4 -1 -18 -20 -20 -15 32 -1 15 36 27 39 20 13 -0 -20 -5 7 10 10 9 -14 6 -20 -7 26
10 1 3 7 13 28 22 15 16 -18 -20 11 18 5 35 34 25 51 42 30 12 -4 -2 -9 13 13 10 12 15 8 -3 -16
12 4 5 16 20 26 21 25 28 14 -20 17 26 7 0 33 25 43 41 31 14 15 14 -20 0 -20 18 15 13 12 10 -4
14 14 25 35 24 28 28 28 28 23 3 -20 21 18 19 -11 7 20 28 24 9 9 12 13 15 2 3 7 21 14 17 8
13 26 35 28 31 31 29 32 30 32 28 29 25 18 0 -1 23 7 8 22 19 -13 -3 -11 17 8 3 7 -1 17 15 4
20 28 31 35 38 30 31 30 27 18 15 -15 1 33 14 32 22 29 12 -14 -20 -20 -1 -9 18 19 19 3 3 5 25 -3
20 21 24 31 33 28 26 28 24 27 19 7 -10 -12 23 30 12 -19 -20 -20 -20 -20 -20 -18 4 -19 -19 -3 14 11 11 11
20 21 19 28 26 36 31 30 2 -10 9 32 25 28 -12 -18 -20 -20 -20 -20 -20 -20 -20 -20 -20 -18 -19 -13 7 8 17 21
16 20 21 25 28 33 35 31 22 13 14 10 7 6 -14 -18 -20 -13 4 8 -8 -20 -20 -4 6 -7 -6 -3 3 19 14 17
13 15 5 17 25 28 32 29 25 25 24 33 23 14 -0 6 15 17 17 21 33 21 15 14 17 23 23 17 12 20 22 22
-0 -5 -4 9 12 16 20 25 18 13 21 16 25 22 7 20 9 6 5 19 -9 -1 -2 19 10 18 25 32 30 26 23 22
-2 2 1 0 5 10 10 12 17 10 18 20 10 -5 -12 -10 -7 -6 -3 -1 -13 -20 -12 -20 17 20 9 23 4 -12 5 18
-18 -14 -4 -4 -15 -12 -7 3 8 9 2 -2 -4 -20 -20 -17 -17 -2 -0 -11 -0 -9 -11 -8 -20 -20 -20 -20 -20 -13 1 4

GFSFLT1_prec_radar_132.txt.gz
Reflectivity
-20 -20 -20 -20 -20 -20 -20 -20 -20 -20 -20 -20 21 23 24 -8 -20 -20 -20 -20 -20 -20 -20 -20 8 -20 -12 -16 -20 10 -20 -20
-20 -20 -20 -20 -20 -20 -20 -20 -20 -20 -20 -20 -20 -13 7 37 -1 -16 -20 -20 -20 -20 3 -20 -20 -0 -20 -2 -20 -20 -20 -20
-20 -20 -20 -20 -20 -20 -20 -20 -20 -20 -20 -20 -20 -20 34 -20 -5 -3 -20 -20 -20 -20 -6 -20 -20 -20 -11 -12 -14 -4 -1 9
-20 -20 -20 -20 -20 -8 -20 -20 -20 -20 -20 -20 -11 -14 -15 35 36 -10 -20 -20 -20 -20 -20 -20 -20 -19 -20 -20 7 -17 -7 1
-20 -20 -20 -20 -20 -20 -20 -20 -20 -20 -20 -19 0 2 11 14 4 6 -16 -20 -20 -20 -20 -14 -5 -20 -10 -18 -20 -20 -4 -20
-20 -19 -20 -20 -20 -20 -20 -20 -2 -20 -20 -5 -2 -19 -8 -12 14 37 -11 -20 -20 -20 -20 -20 7 -20 -20 -11 6 -9 -12 -14
-20 -1 -20 -5 -10 -20 -11 -5 -4 -20 -10 22 11 -20 -20 28 34 38 2 8 -4 0 -11 -7 -16 4 -20 -20 -19 -20 11 -10
-20 2 5 2 -20 -20 1 11 8 -10 3 18 13 -20 0 23 32 27 44 31 30 31 32 21 8 -4 10 17 12 -19 -20 -20
3 6 3 6 14 7 5 11 17 14 19 25 13 -20 3 18 35 27 46 32 6 41 49 36 21 11 17 34 10 6 -18 -20
1 3 -1 4 5 15 18 25 31 28 22 25 27 11 -14 -2 27 33 41 31 35 45 38 27 18 15 9 5 17 8 20 19
1 1 3 19 29 18 33 33 40 33 30 24 30 -2 -11 10 17 4 29 30 42 42 39 29 23 14 -7 20 8 13 16 20
2 -2 1 31 34 30 33 39 41 37 37 36 27 -13 30 18 15 21 38 20 29 35 29 25 23 28 17 16 -8 -2 19 5
1 -1 -19 8 32 35 31 33 32 42 32 26 23 -20 -10 30 21 32 33 33 38 30 25 10 1 9 18 12 17 10 17 15
-1 0 4 9 18 31 37 35 31 31 35 32 5 -20 -20 -18 23 21 -2 -20 -20 -20 13 22 16 17 6 10 3 7 9 15
4 -1 6 10 18 19 38 37 37 32 23 13 30 32 -3 -15 -20 -20 -20 -20 -20 -20 -20 -9 -20 -20 -20 -20 1 15 15 -14
-17 -1 6 6 13 14 15 15 24 37 38 31 29 27 21 11 14 -17 -20 -20 -20 -20 -20 -20 -8 -9 -13 -20 -20 -20 -20 13
-20 -20 -20 5 8 13 16 21 9 14 11 22 31 25 18 -1 12 -19 -20 -20 -20 -20 -20 -20 -20 28 35 31 19 35 12 -6
-20 -20 -20 -20 -20 -4 6 13 16 15 13 14 13 8 15 21 9 -20 -9 -6 -3 -20 -8 4 -17 1 10 6 26 23 17 29
-20 -20 -20 -20 -20 -20 -15 1 5 7 3 11 5 -2 -11 -2 -11 -9 -17 -3 7 -5 1 -20 -19 -19 4 -4 -14 7 -17 -14

GFSFLT1_prec_radar_135.txt.gz
Reflectivity
-20 -20 -20 -20 -20 -20 -20 -20 -20 -20 -20 -20 -20 -20 -20 -20 28 6 19 12 -12 10 -15 -20 -20 -20 -20 -20 -20 -20 -20 -20
-20 -20 -20 -20 -20 -20 -20 -20 -20 -20 -20 -20 -20 -20 -20 -20 -20 30 35 36 7 6 6 -20 -20 -20 -20 -20 -20 -20 -20 -20
-20 -20 -20 -20 -20 -20 -20 -20 -20 -20 -20 -20 -20 -20 -20 -20 -20 -20 29 39 32 11 -2 -8 -20 -20 -20 3 5 -20 -20 -20
-20 -20 -20 -20 -20 -20 -20 -20 -20 -20 -20 -20 -20 -18 -20 -20 -20 -20 -15 27 35 -10 -20 -20 -20 -20 -19 -20 -20 -15 -16 -16
-20 -20 -20 -20 -20 -20 -20 -20 -20 -20 -20 -20 -16 -17 -20 -20 -20 -12 -20 31 35 16 -19 -20 -20 -20 -20 -20 -20 -20 -20 -20
-20 -20 -20 -20 -20 -20 -20 -20 -20 -20 -20 -16 -20 -5 8 -20 -15 -19 -14 -17 12 34 16 -15 -20 -20 -20 -20 -20 -20 -20 -17
-20 -20 -20 -20 -9 -20 -20 -20 -20 -20 -20 1 -20 8 0 -2 -10 -19 -19 25 12 34 31 11 -9 -14 -20 -20 -20 -20 -16 -20
-20 -20 -20 -20 -10 -13 -20 -20 -20 -19 -18 -17 -13 9 1 9 9 -16 -9 27 -13 28 48 33 26 14 1 -14 -16 -5 -10 -17
-4 -7 -20 -20 -7 0 0 -4 -4 -17 -3 -4 0 4 5 25 -2 -20 31 37 -20 12 49 42 18 9 26 21 24 -13 1 2
-10 -20 -20 -19 -7 9 29 7 14 19 20 10 10 16 12 26 7 -20 -15 9 35 28 38 52 29 10 34 36 19 35 34 33
-20 -20 -20 -10 10 22 7 2 31 28 31 24 29 27 20 30 21 -20 28 -4 -8 14 41 43 27 17 39 51 33 36 34 32
-20 -20 -18 -1 -7 17 10 23 29 35 35 34 36 32 37 33 -1 -20 -2 29 22 38 39 30 25 34 34 32 24 26 18 15
-20 -20 -19 -19 -17 2 13 32 30 37 40 31 41 41 43 12 5 -4 -11 14 28 26 16 30 39 36 35 26 27 23 25 16
-20 -20 -20 -20 -20 -16 11 25 31 39 37 38 39 39 13 -12 -11 -9 -16 -20 13 27 1 22 35 32 34 22 24 32 22 6
-20 -20 -20 -20 -20 -20 -1 23 27 37 39 33 38 35 19 3 0 1 33 14 -18 5 24 25 20 29 34 12 -0 -2 -4 6
-20 -20 -20 -20 -15 -20 -20 -9 12 23 29 21 28 21 29 22 -9 -6 -8 -19 -20 -13 32 32 32 31 28 10 -0 -20 -20 -20
-20 -20 -20 -20 -20 -16 -10 -2 5 -7 21 23 29 22 17 -12 10 5 -12 -20 -20 -20 -20 -7 1 -20 -5 -12 0 -20 -20 -13
-20 -20 -20 -20 -20 -20 -20 -20 -11 -3 -2 -1 -4 16 17 21 4 5 8 4 -12 -10 -19 -20 -20 -20 -20 -20 -20 -20 -20 -15
-20 -20 -20 -20 -20 -20 -20 -20 -20 -20 -20 -14 -11 4 10 -2 -5 9 5 -1 -1 -19 -17 -19 -17 -19 -20 -20 -20 -20 -20 -20

GFSFLT1_prec_radar_138.txt.gz
Reflectivity
-20 -20 -20 -20 -20 -20 -20 -20 -20 -20 -20 -20 -20 -20 -20 -20 -20 11 9 1 35 31 24 -6 -20 -20 -20 -20 -20 -20 -20 -20
-20 -20 -20 -20 -20 -20 -20 -20 -20 -20 -20 -20 -20 -20 -20 -20 -20 -20 -20 1 37 43 27 32 6 11 -20 -20 -20 -20 -5 -20
-20 -20 -20 -20 -20 -20 -20 -20 -20 -20 -20 -20 -20 -16 -20 -2 -20 -20 -20 -16 23 9 32 32 28 12 13 -17 -19 -20 0 5
-20 -20 -20 -20 -20 -20 -20 -20 -20 -20 -20 -20 -20 -13 -20 -20 -20 -20 -20 -20 22 18 49 35 32 6 -18 -20 -20 -20 -20 -12
-20 -20 -20 -20 -20 -20 -20 -20 -20 -20 -20 -20 -20 -20 -15 -20 -20 -20 -20 -20 10 25 29 28 33 30 -3 -19 -20 -20 -10 -20
-20 -20 -20 -20 -20 -20 -20 -20 -20 -20 -20 -20 -20 -20 5 6 -15 -20 -20 -20 -20 22 9 -20 31 33 11 -1 -20 -20 -20 -20
-20 -20 -20 -20 -20 -20 -20 -13 -13 -20 -20 -20 -20 -20 5 1 -19 -12 -20 -20 -13 -12 7 17 32 48 34 23 28 -10 -20 1
-20 -20 -20 -20 -20 -20 -20 -15 -19 -20 -19 -20 -20 -5 -7 1 -5 15 6 9 -15 -20 10 3 19 35 50 34 27 25 14 -20
-20 -20 -20 -10 -20 -20 -20 -10 1 14 -5 -7 -0 -3 8 3 19 4 11 1 -9 -18 -16 20 25 26 40 48 36 31 29 -8
-20 -20 -20 -17 -20 -20 5 17 2 21 -5 -6 11 13 3 6 13 16 1 6 9 -20 -20 25 24 30 21 48 39 34 31 30
-20 -20 -20 -20 -20 -9 -1 11 24 22 -1 -2 25 22 15 12 19 16 18 16 13 -20 -20 -9 -1 -12 12 42 39 33 27 25
-20 -20 -20 -20 -20 -20 -3 -1 21 -8 16 21 15 22 17 17 24 33 30 28 6 -18 -15 15 29 17 12 24 42 38 25 6
-20 -20 -20 -20 -20 -20 -2 -5 10 24 34 35 38 35 36 35 36 37 32 18 -19 2 28 8 22 36 36 31 38 36 27 24
-20 -20 -20 -20 -20 -20 -20 2 -3 5 31 36 38 31 40 38 38 35 27 -11 22 28 -8 -2 24 25 13 25 33 38 41 44
-20 -20 -20 -20 -20 -20 -20 -20 -20 -19 9 13 32 37 36 26 40 29 -7 -20 2 45 19 -3 1 -0 12 25 35 37 38 32
-20 -20 -20 -20 -20 -20 -20 -20 -19 -19 -18 -2 9 22 34 23 23 12 22 22 -20 -20 -20 -20 -20 3 11 8 22 36 33 25
-20 -20 -20 -20 -20 -18 -20 -20 -19 -9 -1 -4 -2 4 4 21 13 22 10 5 -11 -20 -20 -20 -20 -15 1 -1 -13 1 10 12
-20 -20 -20 -20 -20 -20 -20 -20 -20 -20 -20 -18 -4 2 1 4 13 16 8 12 -15 -11 -20 -20 -20 -20 -18 -20 -20 -20 -20 -20
-20 -20 -20 -20 -20 -20 -20 -20 -20 -20 -20 -20 -20 -12 2 -4 -7 -1 -12 -17 -14 -20 -20 -20 -20 -20 -20 -20 -20 -20 -20 -20

GFSFLT1_prec_radar_141.txt.gz
Reflectivity
-20 -20 -20 -20 -20 -20 -20 -20 -20 -20 -20 -20 -20 -20 -20 -20 -20 -20 -20 -20 -18 23 28 34 10 8 -16 -12 -18 -20 -20 -20
-20 -20 -20 -20 -20 -20 -20 -20 -20 -20 -20 -20 -20 -20 -20 -20 -20 -20 -20 -20 -20 -20 25 9 29 27 18 -0 -7 -5 13 -20
-20 -20 -20 -20 -20 -20 -20 -20 -20 -20 -20 -20 -20 -20 -20 -17 -17 -20 -20 -20 -20 2 13 19 41 36 30 28 5 -7 14 11
-20 -20 -20 -20 -20 -20 -20 -20 -20 -20 -20 -20 -20 -20 -20 -20 0 -17 -20 -20 -20 -20 -20 -20 -6 46 45 36 22 15 0 18
-20 -20 -20 -20 -20 -20 -20 -20 -20 -20 -20 -20 -20 -20 -20 3 4 -16 -20 -20 -20 -20 -20 -20 -10 18 32 32 29 30 12 3
-20 -20 -20 -20 -20 -20 -20 -20 -20 -20 -20 -20 -20 -10 7 -3 9 5 -20 -20 -20 -20 -20 -20 -20 26 16 15 30 23 14 18
-20 -20 -20 -20 -20 -20 -20 -17 -20 -20 -20 2 -13 -3 2 7 20 -11 -12 2 2 -18 -19 -15 -17 -20 37 23 32 37 29 15
-20 -20 -20 -20 -20 -20 -10 -19 -20 -18 -15 -13 -10 8 -16 3 14 1 10 7 19 24 -20 -20 -20 -17 32 37 36 46 46 32
-20 -20 -20 -20 -20 -20 -20 -20 -20 -20 4 -1 2 4 4 2 7 4 21 -5 18 4 6 -20 -20 -20 -16 16 46 23 45 42
-20 -20 -20 -20 -20 -20 -20 -15 -17 -15 4 1 6 4 3 9 3 -5 1 22 16 25 21 -20 -20 -20 -20 -10 25 0 24 33
-20 -20 -20 -20 -20 -20 -20 -20 -20 -15 -11 3 28 15 4 14 11 11 21 28 18 15 6 -20 -20 -20 -20 14 18 19 12 31
-20 -20 -20 -20 -20 -20 -20 -20 -19 -15 22 14 32 4 12 21 8 18 26 31 33 30 22 14 -12 -2 -19 24 31 23 6 23
-20 -20 -20 -20 -20 -20 -20 -20 -20 4 25 26 31 28 8 15 21 26 26 32 37 33 29 25 17 21 -20 8 40 29 2 7
-20 -20 -20 -20 -20 -20 -20 -20 -20 -20 -14 16 4 15 26 27 35 35 33 35 34 38 30 28 -3 -20 -20 -2 15 22 27 35
-20 -20 -20 -20 -20 -20 -20 -20 -20 -20 -20 -7 10 16 10 25 32 30 34 30 22 24 38 34 32 19 -16 12 33 32 29 33
-20 -20 -20 -20 -20 -20 -20 -20 -20 -20 -20 -16 -13 5 12 3 10 20 32 20 25 40 30 24 24 17 1 1 15 28 34 30
-20 -20 -20 -20 -20 -20 -20 -20 -20 -20 -20 -20 -20 -20 8 15 6 17 19 1 -12 13 21 14 2 -20 -9 -9 5 7 -5 -9
-20 -20 -20 -20 -20 -20 -20 -20 -20 -20 -20 -20 -18 -9 -18 1 8 -1 12 15 8 -0 -1 3 -9 -20 -20 -20 -20 -20 -9 -6
-20 -20 -20 -20 -20 -20 -20 -20 -20 -20 -20 -20 -20 -20 -10 -17 -19 0 4 -1 6 2 -1 -20 -20 -20 -20 -20 -20 -20 -14 -20

GFSFLT1_prec_radar_147.txt.gz
Reflectivity
-20 -20 -20 -20 -20 -20 -20 -20 -20 -20 -20 -20 -20 -20 -20 -20 -20 -20 -20 -20 -20 -20 -3 -20 -20 -20 -20 -20 8 20 18 -9
-20 -20 -20 -20 -20 -20 -20 -20 -20 -20 -20 -20 -20 -20 -20 -20 -20 -20 -20 -20 -18 -20 -20 -1 -20 -20 -20 -20 -20 16 41 24
-20 -20 -20 -20 -20 -20 -20 -20 -20 -20 -20 -20 -14 -12 -2 -2 -16 -16 -20 -20 -20 -20 -18 -0 -4 8 -14 -1 -17 -20 -5 42
-20 -20 -20 -20 -20 -20 -20 -20 -20 -20 -20 -20 -20 -13 -8 -4 -20 -11 -13 -20 -20 -20 -19 -0 3 7 2 -20 -8 3 5 -7
-20 -20 -20 -20 -20 -20 -20 -20 -20 -20 -20 -20 -11 4 0 6 7 2 -2 -12 7 9 12 6 -14 -18 3 4 -20 -20 7 9
-20 -20 -20 -20 -20 -20 -20 -20 -20 -20 -20 -13 -8 5 7 -2 0 7 3 -13 3 6 11 8 15 20 11 -13 4 -8 1 4
-20 -20 -20 -20 -20 -20 -20 -20 -20 -20 -19 -20 1 4 3 3 3 3 4 -7 -12 -4 -18 -4 -4 7 7 6 9 7 -13 20
-20 -20 -20 -20 -20 -20 -20 -20 -20 -20 -20 -15 1 -1 2 4 5 6 -3 -19 -20 -19 -4 -0 -13 -18 2 2 9 8 -20 12
-20 -20 -20 -20 -20 -20 -20 -20 -20 -20 -20 -4 -0 -3 6 3 4 8 8 -0 -9 1 3 -9 -20 -19 13 18 9 12 8 23
-20 -20 -20 -20 -20 -20 -20 -20 -20 -11 -18 -6 1 3 2 5 -1 2 9 -7 -3 -12 -17 -19 -20 -8 -20 23 14 8 -20 -14
-20 -20 -20 -20 -20 -20 -20 -20 -20 -7 -20 -11 -5 -1 -3 -3 -17 -17 4 -1 -2 12 11 -7 1 12 0 10 30 5 -15 -12
-20 -20 -20 -20 -20 -20 -20 -20 -20 -16 -20 -20 -6 -20 -20 -20 -19 -8 -5 -0 8 11 2 -7 35 20 25 33 19 14 21 16
-20 -20 -20 -20 -20 -20 -20 -20 -20 -20 -20 -20 -7 -17 -20 -20 -11 5 1 15 6 5 4 -18 -4 20 29 34 28 25 21 25
-20 -20 -20 -20 -20 -20 -20 -20 -20 -20 -20 -20 -20 -20 -20 -20 -20 -20 -9 3 7 5 10 16 22 34 26 31 30 16 15 19
-20 -20 -20 -20 -20 -20 -20 -20 -20 -20 -20 -20 -20 -20 -20 -20 -20 -20 -20 6 19 15 19 26 28 32 35 31 27 27 15 33
-20 -20 -20 -20 -20 -20 -20 -20 -20 -20 -20 -20 -20 -20 -20 -20 -20 -20 -20 -20 4 15 21 24 27 27 26 35 30 28 35 32
-20 -20 -20 -20 -20 -20 -20 -20 -20 -20 -20 -20 -20 -20 -20 -20 -20 -20 -20 -20 -20 -10 9 14 23 21 26 18 11 23 34 29
-20 -20 -20 -20 -20 -20 -20 -20 -20 -20 -20 -20 -20 -20 -20 -20 -20 -20 -20 -20 -20 -20 -18 -2 -4 18 19 21 13 11 22 17
-20 -20 -20 -20 -20 -20 -20 -20 -20 -20 -20 -20 -20 -20 -20 -20 -20 -20 -20 -20 -20 -20 -20 -20 -17 -17 0 8 10 10 6 1